Observation data for Lesley on 01/20/2019      Previous  Date  Next       Current Mesonet Observations  Soil Data  Daily Summary Page  Observations in Plain Language
KLE1 200600Z 13006KT M03/M07 A3033 RMK A01 T10261067  RH  074%=      5-min Rain = 0
KLE1 200601Z 13007KT M03/M07 A3033 RMK A01 T10271067  RH  074%=      5-min Rain = 0
KLE1 200602Z 13007KT M03/M07 A3033 RMK A01 T10271067  RH  074%=      5-min Rain = 0
KLE1 200603Z 12006KT M03/M07 A3033 RMK A01 T10271067  RH  074%=      5-min Rain = 0
KLE1 200604Z 12006KT M03/M07 A3033 RMK A01 T10271068  RH  073%=      5-min Rain = 0
KLE1 200605Z 13005KT M03/M07 A3033 RMK A01 T10271068  RH  073%=      5-min Rain = 0
KLE1 200606Z 14005KT M03/M07 A3034 RMK A01 T10271068  RH  073%=      5-min Rain = 0
KLE1 200607Z 14005KT M03/M07 A3034 RMK A01 T10261068  RH  073%=      5-min Rain = 0
KLE1 200608Z 14005KT M03/M07 A3034 RMK A01 T10261067  RH  073%=      5-min Rain = 0
KLE1 200609Z 14005KT M03/M07 A3033 RMK A01 T10251067  RH  073%=      5-min Rain = 0
KLE1 200610Z 13006KT M03/M07 A3033 RMK A01 T10251067  RH  072%=      5-min Rain = 0
KLE1 200611Z 13005KT M02/M07 A3033 RMK A01 T10241067  RH  072%=      5-min Rain = 0
KLE1 200612Z 13005KT M02/M07 A3033 RMK A01 T10231067  RH  072%=      5-min Rain = 0
KLE1 200613Z 14006KT M02/M07 A3033 RMK A01 T10221068  RH  071%=      5-min Rain = 0
KLE1 200614Z 15005KT M02/M07 A3033 RMK A01 T10221068  RH  071%=      5-min Rain = 0
KLE1 200615Z 15005KT M02/M07 A3033 RMK A01 T10221069  RH  070%=      5-min Rain = 0
KLE1 200616Z 15005KT M02/M07 A3033 RMK A01 T10221069  RH  070%=      5-min Rain = 0
KLE1 200617Z 16005KT M02/M07 A3033 RMK A01 T10221069  RH  070%=      5-min Rain = 0
KLE1 200618Z 16005KT M02/M07 A3034 RMK A01 T10221069  RH  070%=      5-min Rain = 0
KLE1 200619Z 17005KT M02/M07 A3034 RMK A01 T10221069  RH  070%=      5-min Rain = 0
KLE1 200620Z 16005KT M02/M07 A3034 RMK A01 T10221069  RH  070%=      5-min Rain = 0
KLE1 200621Z 15005KT M02/M07 A3033 RMK A01 T10221069  RH  070%=      5-min Rain = 0
KLE1 200622Z 15005KT M02/M07 A3033 RMK A01 T10221069  RH  070%=      5-min Rain = 0
KLE1 200623Z 15005KT M02/M07 A3032 RMK A01 T10201068  RH  070%=      5-min Rain = 0
KLE1 200624Z 15006KT M02/M07 A3032 RMK A01 T10191068  RH  069%=      5-min Rain = 0
KLE1 200625Z 15006KT M02/M07 A3032 RMK A01 T10181068  RH  069%=      5-min Rain = 0
KLE1 200626Z 15006KT M02/M07 A3032 RMK A01 T10191069  RH  069%=      5-min Rain = 0
KLE1 200627Z 14006KT M02/M07 A3032 RMK A01 T10201069  RH  069%=      5-min Rain = 0
KLE1 200628Z 14005KT M02/M07 A3032 RMK A01 T10221070  RH  070%=      5-min Rain = 0
KLE1 200629Z 13005KT M02/M07 A3032 RMK A01 T10231069  RH  070%=      5-min Rain = 0
KLE1 200630Z 12005KT M02/M07 A3032 RMK A01 T10241069  RH  071%=      5-min Rain = 0
KLE1 200631Z 11005KT M03/M07 A3032 RMK A01 T10251070  RH  071%=      5-min Rain = 0
KLE1 200632Z 11004KT M03/M07 A3032 RMK A01 T10261069  RH  072%=      5-min Rain = 0
KLE1 200633Z 11004KT M03/M07 A3032 RMK A01 T10261069  RH  072%=      5-min Rain = 0
KLE1 200634Z 11003KT M03/M07 A3033 RMK A01 T10271069  RH  073%=      5-min Rain = 0
KLE1 200635Z 11003KT M03/M07 A3033 RMK A01 T10281070  RH  073%=      5-min Rain = 0
KLE1 200636Z 10003KT M03/M07 A3033 RMK A01 T10281069  RH  073%=      5-min Rain = 0
KLE1 200637Z 10003KT M03/M07 A3032 RMK A01 T10281069  RH  073%=      5-min Rain = 0
KLE1 200638Z 10004KT M03/M07 A3032 RMK A01 T10281069  RH  073%=      5-min Rain = 0
KLE1 200639Z 10004KT M03/M07 A3032 RMK A01 T10271069  RH  073%=      5-min Rain = 0
KLE1 200640Z 10004KT M03/M07 A3033 RMK A01 T10271070  RH  072%=      5-min Rain = 0
KLE1 200641Z 10003KT M03/M07 A3033 RMK A01 T10271070  RH  072%=      5-min Rain = 0
KLE1 200642Z 11003KT M03/M07 A3033 RMK A01 T10271070  RH  072%=      5-min Rain = 0
KLE1 200643Z 13003KT M03/M07 A3033 RMK A01 T10271070  RH  072%=      5-min Rain = 0
KLE1 200644Z 13003KT M03/M07 A3033 RMK A01 T10261070  RH  072%=      5-min Rain = 0
KLE1 200645Z 14003KT M03/M07 A3033 RMK A01 T10261071  RH  072%=      5-min Rain = 0
KLE1 200646Z 13003KT M03/M07 A3033 RMK A01 T10261070  RH  071%=      5-min Rain = 0
KLE1 200647Z 12003KT M03/M07 A3033 RMK A01 T10251071  RH  071%=      5-min Rain = 0
KLE1 200648Z 12003KT M02/M07 A3033 RMK A01 T10241070  RH  071%=      5-min Rain = 0
KLE1 200649Z 13003KT M02/M07 A3033 RMK A01 T10241070  RH  070%=      5-min Rain = 0
KLE1 200650Z 13003KT M02/M07 A3033 RMK A01 T10241071  RH  070%=      5-min Rain = 0
KLE1 200651Z 14003KT M02/M07 A3033 RMK A01 T10231071  RH  070%=      5-min Rain = 0
KLE1 200652Z 14003KT M02/M07 A3033 RMK A01 T10231071  RH  070%=      5-min Rain = 0
KLE1 200653Z 13003KT M02/M07 A3033 RMK A01 T10231072  RH  069%=      5-min Rain = 0
KLE1 200654Z 14004KT M02/M07 A3033 RMK A01 T10231071  RH  069%=      5-min Rain = 0
KLE1 200655Z 14004KT M02/M07 A3033 RMK A01 T10231072  RH  069%=      5-min Rain = 0
KLE1 200656Z 13003KT M02/M07 A3033 RMK A01 T10231071  RH  069%=      5-min Rain = 0
KLE1 200657Z 14003KT M02/M07 A3033 RMK A01 T10221071  RH  069%=      5-min Rain = 0
KLE1 200658Z 14003KT M02/M07 A3033 RMK A01 T10221071  RH  069%=      5-min Rain = 0
KLE1 200659Z 14003KT M02/M07 A3033 RMK A01 T10221072  RH  069%=      5-min Rain = 0
KLE1 200700Z 13003KT M02/M07 A3033 RMK A01 T10231072  RH  069%=      5-min Rain = 0
KLE1 200701Z 12003KT M02/M07 A3033 RMK A01 T10231072  RH  069%=      5-min Rain = 0
KLE1 200702Z 10003KT M02/M07 A3033 RMK A01 T10231072  RH  069%=      5-min Rain = 0
KLE1 200703Z 10004KT M02/M07 A3033 RMK A01 T10241072  RH  069%=      5-min Rain = 0
KLE1 200704Z 09003KT M03/M07 A3033 RMK A01 T10251073  RH  070%=      5-min Rain = 0
KLE1 200705Z 09003KT M03/M07 A3033 RMK A01 T10261074  RH  070%=      5-min Rain = 0
KLE1 200706Z 11003KT M03/M07 A3033 RMK A01 T10271074  RH  070%=      5-min Rain = 0
KLE1 200707Z 11002KT M03/M07 A3033 RMK A01 T10281074  RH  071%=      5-min Rain = 0
KLE1 200708Z 12002KT M03/M07 A3033 RMK A01 T10281073  RH  071%=      5-min Rain = 0
KLE1 200709Z 12003KT M03/M07 A3032 RMK A01 T10281073  RH  071%=      5-min Rain = 0
KLE1 200710Z 12003KT M03/M07 A3033 RMK A01 T10281074  RH  071%=      5-min Rain = 0
KLE1 200711Z 11003KT M03/M07 A3033 RMK A01 T10281074  RH  071%=      5-min Rain = 0
KLE1 200712Z 11003KT M03/M07 A3033 RMK A01 T10271074  RH  071%=      5-min Rain = 0
KLE1 200713Z 11002KT M03/M07 A3033 RMK A01 T10271074  RH  070%=      5-min Rain = 0
KLE1 200714Z 12002KT M03/M07 A3034 RMK A01 T10271074  RH  070%=      5-min Rain = 0
KLE1 200715Z 13002KT M03/M07 A3033 RMK A01 T10281074  RH  070%=      5-min Rain = 0
KLE1 200716Z 12002KT M03/M07 A3033 RMK A01 T10271074  RH  070%=      5-min Rain = 0
KLE1 200717Z 15002KT M03/M07 A3033 RMK A01 T10271074  RH  070%=      5-min Rain = 0
KLE1 200718Z 15002KT M03/M07 A3033 RMK A01 T10281074  RH  071%=      5-min Rain = 0
KLE1 200719Z 13002KT M03/M07 A3034 RMK A01 T10281074  RH  071%=      5-min Rain = 0
KLE1 200720Z 13002KT M03/M07 A3034 RMK A01 T10271073  RH  071%=      5-min Rain = 0
KLE1 200721Z 14003KT M03/M07 A3034 RMK A01 T10271073  RH  070%=      5-min Rain = 0
KLE1 200722Z 13004KT M03/M07 A3033 RMK A01 T10261072  RH  070%=      5-min Rain = 0
KLE1 200723Z 13004KT M03/M07 A3033 RMK A01 T10251072  RH  070%=      5-min Rain = 0
KLE1 200724Z 14004KT M03/M07 A3032 RMK A01 T10251073  RH  070%=      5-min Rain = 0
KLE1 200725Z 14004KT M03/M07 A3032 RMK A01 T10251073  RH  070%=      5-min Rain = 0
KLE1 200726Z 12004KT M03/M07 A3032 RMK A01 T10251072  RH  070%=      5-min Rain = 0
KLE1 200727Z 12003KT M03/M07 A3032 RMK A01 T10251073  RH  070%=      5-min Rain = 0
KLE1 200728Z 11003KT M03/M07 A3032 RMK A01 T10261073  RH  070%=      5-min Rain = 0
KLE1 200729Z 10003KT M03/M07 A3032 RMK A01 T10261074  RH  070%=      5-min Rain = 0
KLE1 200730Z 10003KT M03/M07 A3032 RMK A01 T10271074  RH  070%=      5-min Rain = 0
KLE1 200731Z 11003KT M03/M07 A3033 RMK A01 T10271074  RH  070%=      5-min Rain = 0
KLE1 200732Z 10003KT M03/M07 A3033 RMK A01 T10281073  RH  071%=      5-min Rain = 0
KLE1 200733Z 10003KT M03/M07 A3033 RMK A01 T10281073  RH  071%=      5-min Rain = 0
KLE1 200734Z 09002KT M03/M07 A3033 RMK A01 T10281073  RH  071%=      5-min Rain = 0
KLE1 200735Z 09002KT M03/M07 A3033 RMK A01 T10281073  RH  071%=      5-min Rain = 0
KLE1 200736Z 09003KT M03/M07 A3032 RMK A01 T10281073  RH  071%=      5-min Rain = 0
KLE1 200737Z 10003KT M03/M07 A3032 RMK A01 T10281073  RH  071%=      5-min Rain = 0
KLE1 200738Z 10004KT M03/M07 A3032 RMK A01 T10281073  RH  071%=      5-min Rain = 0
KLE1 200739Z 11003KT M03/M07 A3032 RMK A01 T10281073  RH  072%=      5-min Rain = 0
KLE1 200740Z 11003KT M03/M07 A3032 RMK A01 T10281072  RH  072%=      5-min Rain = 0
KLE1 200741Z 11003KT M03/M07 A3032 RMK A01 T10281072  RH  072%=      5-min Rain = 0
KLE1 200742Z 11003KT M03/M07 A3032 RMK A01 T10281072  RH  072%=      5-min Rain = 0
KLE1 200743Z 13003KT M03/M07 A3032 RMK A01 T10291072  RH  072%=      5-min Rain = 0
KLE1 200744Z 13003KT M03/M07 A3032 RMK A01 T10281072  RH  072%=      5-min Rain = 0
KLE1 200745Z 13003KT M03/M07 A3032 RMK A01 T10281072  RH  072%=      5-min Rain = 0
KLE1 200746Z 12003KT M03/M07 A3032 RMK A01 T10281072  RH  071%=      5-min Rain = 0
KLE1 200747Z 13003KT M03/M07 A3032 RMK A01 T10271072  RH  071%=      5-min Rain = 0
KLE1 200748Z 14003KT M03/M07 A3032 RMK A01 T10271072  RH  071%=      5-min Rain = 0
KLE1 200749Z 15004KT M03/M07 A3032 RMK A01 T10271072  RH  071%=      5-min Rain = 0
KLE1 200750Z 15004KT M03/M07 A3032 RMK A01 T10271072  RH  071%=      5-min Rain = 0
KLE1 200751Z 15004KT M03/M07 A3032 RMK A01 T10271072  RH  071%=      5-min Rain = 0
KLE1 200752Z 14004KT M03/M07 A3032 RMK A01 T10271072  RH  071%=      5-min Rain = 0
KLE1 200753Z 14004KT M03/M07 A3032 RMK A01 T10271072  RH  071%=      5-min Rain = 0
KLE1 200754Z 15004KT M03/M07 A3032 RMK A01 T10261072  RH  071%=      5-min Rain = 0
KLE1 200755Z 14004KT M03/M07 A3032 RMK A01 T10261071  RH  071%=      5-min Rain = 0
KLE1 200756Z 14004KT M03/M07 A3032 RMK A01 T10261071  RH  071%=      5-min Rain = 0
KLE1 200757Z 15004KT M03/M07 A3033 RMK A01 T10261072  RH  071%=      5-min Rain = 0
KLE1 200758Z 15003KT M03/M07 A3033 RMK A01 T10261072  RH  071%=      5-min Rain = 0
KLE1 200759Z 14003KT M03/M07 A3033 RMK A01 T10261072  RH  071%=      5-min Rain = 0
KLE1 200800Z 13003KT M03/M07 A3033 RMK A01 T10261072  RH  071%=      5-min Rain = 0
KLE1 200801Z 12003KT M03/M07 A3033 RMK A01 T10261072  RH  071%=      5-min Rain = 0
KLE1 200802Z 12003KT M03/M07 A3033 RMK A01 T10271072  RH  071%=      5-min Rain = 0
KLE1 200803Z 12002KT M03/M07 A3033 RMK A01 T10271072  RH  071%=      5-min Rain = 0
KLE1 200804Z 14002KT M03/M07 A3033 RMK A01 T10271072  RH  071%=      5-min Rain = 0
KLE1 200805Z 15003KT M03/M07 A3033 RMK A01 T10271072  RH  071%=      5-min Rain = 0
KLE1 200806Z 15002KT M03/M07 A3033 RMK A01 T10281072  RH  071%=      5-min Rain = 0
KLE1 200807Z 14003KT M03/M07 A3033 RMK A01 T10281072  RH  072%=      5-min Rain = 0
KLE1 200808Z 14003KT M03/M07 A3033 RMK A01 T10281072  RH  072%=      5-min Rain = 0
KLE1 200809Z 13002KT M03/M07 A3033 RMK A01 T10281072  RH  072%=      5-min Rain = 0
KLE1 200810Z 13002KT M03/M07 A3033 RMK A01 T10281072  RH  072%=      5-min Rain = 0
KLE1 200811Z 14002KT M03/M07 A3033 RMK A01 T10271072  RH  071%=      5-min Rain = 0
KLE1 200812Z 14003KT M03/M07 A3033 RMK A01 T10281072  RH  071%=      5-min Rain = 0
KLE1 200813Z 15002KT M03/M07 A3033 RMK A01 T10271072  RH  071%=      5-min Rain = 0
KLE1 200814Z 15003KT M03/M07 A3033 RMK A01 T10271072  RH  071%=      5-min Rain = 0
KLE1 200815Z 15002KT M03/M07 A3033 RMK A01 T10271072  RH  071%=      5-min Rain = 0
KLE1 200816Z 14002KT M03/M07 A3033 RMK A01 T10271072  RH  071%=      5-min Rain = 0
KLE1 200817Z 13002KT M03/M07 A3033 RMK A01 T10271072  RH  071%=      5-min Rain = 0
KLE1 200818Z 12002KT M03/M07 A3033 RMK A01 T10261072  RH  071%=      5-min Rain = 0
KLE1 200819Z 12002KT M03/M07 A3034 RMK A01 T10261072  RH  071%=      5-min Rain = 0
KLE1 200820Z 11002KT M03/M07 A3034 RMK A01 T10261072  RH  070%=      5-min Rain = 0
KLE1 200821Z 10002KT M03/M07 A3034 RMK A01 T10261072  RH  070%=      5-min Rain = 0
KLE1 200822Z 11002KT M03/M07 A3033 RMK A01 T10261072  RH  070%=      5-min Rain = 0
KLE1 200823Z 11002KT M03/M07 A3033 RMK A01 T10261072  RH  070%=      5-min Rain = 0
KLE1 200824Z 12002KT M03/M07 A3033 RMK A01 T10261073  RH  070%=      5-min Rain = 0
KLE1 200825Z 10002KT M03/M07 A3033 RMK A01 T10271074  RH  070%=      5-min Rain = 0
KLE1 200826Z 12002KT M03/M07 A3033 RMK A01 T10281074  RH  071%=      5-min Rain = 0
KLE1 200827Z 11002KT M03/M07 A3033 RMK A01 T10281074  RH  071%=      5-min Rain = 0
KLE1 200828Z 12002KT M03/M07 A3033 RMK A01 T10281073  RH  071%=      5-min Rain = 0
KLE1 200829Z 12003KT M03/M07 A3033 RMK A01 T10291073  RH  071%=      5-min Rain = 0
KLE1 200830Z 10003KT M03/M07 A3032 RMK A01 T10291074  RH  071%=      5-min Rain = 0
KLE1 200831Z 10003KT M03/M07 A3032 RMK A01 T10291073  RH  071%=      5-min Rain = 0
KLE1 200832Z 08003KT M03/M07 A3032 RMK A01 T10291074  RH  071%=      5-min Rain = 0
KLE1 200833Z 08004KT M03/M07 A3032 RMK A01 T10301074  RH  072%=      5-min Rain = 0
KLE1 200834Z 08004KT M03/M08 A3033 RMK A01 T10321075  RH  072%=      5-min Rain = 0
KLE1 200835Z 08004KT M03/M08 A3032 RMK A01 T10341076  RH  073%=      5-min Rain = 0
KLE1 200836Z 08003KT M04/M08 A3032 RMK A01 T10351076  RH  073%=      5-min Rain = 0
KLE1 200837Z 09003KT M04/M08 A3032 RMK A01 T10361076  RH  074%=      5-min Rain = 0
KLE1 200838Z 09003KT M04/M08 A3032 RMK A01 T10371075  RH  075%=      5-min Rain = 0
KLE1 200839Z 10003KT M04/M08 A3032 RMK A01 T10371075  RH  075%=      5-min Rain = 0
KLE1 200840Z 11003KT M04/M08 A3033 RMK A01 T10371075  RH  075%=      5-min Rain = 0
KLE1 200841Z 11003KT M04/M08 A3033 RMK A01 T10371075  RH  075%=      5-min Rain = 0
KLE1 200842Z 10003KT M04/M08 A3033 RMK A01 T10371075  RH  075%=      5-min Rain = 0
KLE1 200843Z 11003KT M04/M07 A3033 RMK A01 T10371074  RH  075%=      5-min Rain = 0
KLE1 200844Z 11002KT M04/M07 A3033 RMK A01 T10371074  RH  075%=      5-min Rain = 0
KLE1 200845Z 11002KT M04/M07 A3033 RMK A01 T10361074  RH  075%=      5-min Rain = 0
KLE1 200846Z 10002KT M04/M07 A3033 RMK A01 T10361074  RH  075%=      5-min Rain = 0
KLE1 200847Z 09003KT M04/M07 A3033 RMK A01 T10351074  RH  075%=      5-min Rain = 0
KLE1 200848Z 09003KT M04/M07 A3033 RMK A01 T10351074  RH  074%=      5-min Rain = 0
KLE1 200849Z 09003KT M04/M07 A3033 RMK A01 T10351074  RH  074%=      5-min Rain = 0
KLE1 200850Z 10004KT M04/M08 A3032 RMK A01 T10351075  RH  074%=      5-min Rain = 0
KLE1 200851Z 09004KT M04/M08 A3032 RMK A01 T10351075  RH  074%=      5-min Rain = 0
KLE1 200852Z 09005KT M04/M08 A3032 RMK A01 T10351075  RH  074%=      5-min Rain = 0
KLE1 200853Z 09004KT M04/M08 A3032 RMK A01 T10371077  RH  074%=      5-min Rain = 0
KLE1 200854Z 09004KT M04/M08 A3032 RMK A01 T10391077  RH  075%=      5-min Rain = 0
KLE1 200855Z 10004KT M04/M08 A3032 RMK A01 T10401077  RH  075%=      5-min Rain = 0
KLE1 200856Z 10005KT M04/M08 A3032 RMK A01 T10411077  RH  076%=      5-min Rain = 0
KLE1 200857Z 09005KT M04/M08 A3032 RMK A01 T10411077  RH  076%=      5-min Rain = 0
KLE1 200858Z 09005KT M04/M08 A3032 RMK A01 T10421077  RH  077%=      5-min Rain = 0
KLE1 200859Z 08004KT M04/M08 A3033 RMK A01 T10431078  RH  077%=      5-min Rain = 0
KLE1 200900Z 08004KT M04/M08 A3033 RMK A01 T10431077  RH  077%=      5-min Rain = 0
KLE1 200901Z 08004KT M04/M08 A3033 RMK A01 T10431076  RH  078%=      5-min Rain = 0
KLE1 200902Z 09004KT M04/M08 A3033 RMK A01 T10431076  RH  078%=      5-min Rain = 0
KLE1 200903Z 08005KT M04/M08 A3033 RMK A01 T10421075  RH  078%=      5-min Rain = 0
KLE1 200904Z 08005KT M04/M08 A3033 RMK A01 T10411075  RH  077%=      5-min Rain = 0
KLE1 200905Z 07005KT M04/M08 A3033 RMK A01 T10411076  RH  077%=      5-min Rain = 0
KLE1 200906Z 08005KT M04/M08 A3033 RMK A01 T10421076  RH  077%=      5-min Rain = 0
KLE1 200907Z 08005KT M04/M08 A3033 RMK A01 T10431077  RH  077%=      5-min Rain = 0
KLE1 200908Z 09005KT M04/M08 A3033 RMK A01 T10441077  RH  078%=      5-min Rain = 0
KLE1 200909Z 09005KT M04/M08 A3033 RMK A01 T10441076  RH  078%=      5-min Rain = 0
KLE1 200910Z 09005KT M04/M08 A3033 RMK A01 T10441076  RH  078%=      5-min Rain = 0
KLE1 200911Z 09004KT M04/M08 A3033 RMK A01 T10441076  RH  078%=      5-min Rain = 0
KLE1 200912Z 10004KT M04/M08 A3033 RMK A01 T10441076  RH  078%=      5-min Rain = 0
KLE1 200913Z 10004KT M04/M08 A3033 RMK A01 T10441076  RH  079%=      5-min Rain = 0
KLE1 200914Z 10004KT M04/M08 A3033 RMK A01 T10441075  RH  079%=      5-min Rain = 0
KLE1 200915Z 09004KT M04/M08 A3033 RMK A01 T10431075  RH  078%=      5-min Rain = 0
KLE1 200916Z 09004KT M04/M08 A3033 RMK A01 T10421075  RH  078%=      5-min Rain = 0
KLE1 200917Z 09004KT M04/M08 A3033 RMK A01 T10411075  RH  077%=      5-min Rain = 0
KLE1 200918Z 09004KT M04/M08 A3033 RMK A01 T10411075  RH  077%=      5-min Rain = 0
KLE1 200919Z 09004KT M04/M08 A3033 RMK A01 T10401075  RH  077%=      5-min Rain = 0
KLE1 200920Z 10004KT M04/M07 A3033 RMK A01 T10391074  RH  076%=      5-min Rain = 0
KLE1 200921Z 10004KT M04/M07 A3033 RMK A01 T10381074  RH  076%=      5-min Rain = 0
KLE1 200922Z 10004KT M04/M07 A3033 RMK A01 T10381074  RH  076%=      5-min Rain = 0
KLE1 200923Z 10004KT M04/M07 A3033 RMK A01 T10381074  RH  076%=      5-min Rain = 0
KLE1 200924Z 10004KT M04/M08 A3033 RMK A01 T10371075  RH  075%=      5-min Rain = 0
KLE1 200925Z 09004KT M04/M08 A3033 RMK A01 T10371075  RH  075%=      5-min Rain = 0
KLE1 200926Z 09004KT M04/M08 A3033 RMK A01 T10371075  RH  075%=      5-min Rain = 0
KLE1 200927Z 09004KT M04/M08 A3033 RMK A01 T10381075  RH  075%=      5-min Rain = 0
KLE1 200928Z 09004KT M04/M08 A3033 RMK A01 T10381075  RH  075%=      5-min Rain = 0
KLE1 200929Z 10004KT M04/M08 A3032 RMK A01 T10381076  RH  075%=      5-min Rain = 0
KLE1 200930Z 11004KT M04/M08 A3032 RMK A01 T10381076  RH  075%=      5-min Rain = 0
KLE1 200931Z 11004KT M04/M08 A3032 RMK A01 T10381075  RH  075%=      5-min Rain = 0
KLE1 200932Z 11004KT M04/M08 A3032 RMK A01 T10381075  RH  075%=      5-min Rain = 0
KLE1 200933Z 11004KT M04/M08 A3032 RMK A01 T10371075  RH  075%=      5-min Rain = 0
KLE1 200934Z 12004KT M04/M08 A3032 RMK A01 T10371076  RH  075%=      5-min Rain = 0
KLE1 200935Z 13004KT M04/M08 A3032 RMK A01 T10371075  RH  075%=      5-min Rain = 0
KLE1 200936Z 13004KT M04/M08 A3032 RMK A01 T10361075  RH  074%=      5-min Rain = 0
KLE1 200937Z 13003KT M04/M08 A3032 RMK A01 T10351075  RH  074%=      5-min Rain = 0
KLE1 200938Z 13003KT M04/M08 A3032 RMK A01 T10351075  RH  074%=      5-min Rain = 0
KLE1 200939Z 12003KT M04/M08 A3032 RMK A01 T10351075  RH  073%=      5-min Rain = 0
KLE1 200940Z 12003KT M03/M08 A3032 RMK A01 T10341075  RH  073%=      5-min Rain = 0
KLE1 200941Z 12003KT M03/M08 A3032 RMK A01 T10341075  RH  073%=      5-min Rain = 0
KLE1 200942Z 12003KT M03/M08 A3032 RMK A01 T10341075  RH  073%=      5-min Rain = 0
KLE1 200943Z 13003KT M03/M08 A3032 RMK A01 T10341075  RH  073%=      5-min Rain = 0
KLE1 200944Z 14003KT M03/M08 A3032 RMK A01 T10341075  RH  073%=      5-min Rain = 0
KLE1 200945Z 14003KT M03/M08 A3032 RMK A01 T10341076  RH  073%=      5-min Rain = 0
KLE1 200946Z 14003KT M03/M08 A3032 RMK A01 T10341075  RH  073%=      5-min Rain = 0
KLE1 200947Z 14003KT M03/M08 A3032 RMK A01 T10341075  RH  073%=      5-min Rain = 0
KLE1 200948Z 14004KT M03/M08 A3032 RMK A01 T10341076  RH  073%=      5-min Rain = 0
KLE1 200949Z 14003KT M03/M08 A3032 RMK A01 T10341076  RH  073%=      5-min Rain = 0
KLE1 200950Z 14003KT M03/M08 A3032 RMK A01 T10341076  RH  072%=      5-min Rain = 0
KLE1 200951Z 14004KT M03/M08 A3032 RMK A01 T10341076  RH  072%=      5-min Rain = 0
KLE1 200952Z 14004KT M03/M08 A3032 RMK A01 T10341076  RH  072%=      5-min Rain = 0
KLE1 200953Z 14003KT M03/M08 A3032 RMK A01 T10341076  RH  073%=      5-min Rain = 0
KLE1 200954Z 14004KT M03/M08 A3032 RMK A01 T10341077  RH  073%=      5-min Rain = 0
KLE1 200955Z 15004KT M04/M08 A3032 RMK A01 T10351077  RH  073%=      5-min Rain = 0
KLE1 200956Z 15003KT M04/M08 A3032 RMK A01 T10351077  RH  073%=      5-min Rain = 0
KLE1 200957Z 16004KT M04/M08 A3032 RMK A01 T10351077  RH  073%=      5-min Rain = 0
KLE1 200958Z 16003KT M04/M08 A3032 RMK A01 T10351077  RH  073%=      5-min Rain = 0
KLE1 200959Z 16003KT M04/M08 A3032 RMK A01 T10351077  RH  073%=      5-min Rain = 0
KLE1 201000Z 16003KT M04/M08 A3032 RMK A01 T10351077  RH  073%=      5-min Rain = 0
KLE1 201001Z 16003KT M04/M08 A3032 RMK A01 T10351077  RH  073%=      5-min Rain = 0
KLE1 201002Z 16003KT M04/M08 A3032 RMK A01 T10351077  RH  073%=      5-min Rain = 0
KLE1 201003Z 17003KT M04/M08 A3032 RMK A01 T10351076  RH  073%=      5-min Rain = 0
KLE1 201004Z 18003KT M04/M08 A3032 RMK A01 T10351076  RH  073%=      5-min Rain = 0
KLE1 201005Z 18003KT M04/M08 A3032 RMK A01 T10351077  RH  073%=      5-min Rain = 0
KLE1 201006Z 18003KT M04/M08 A3032 RMK A01 T10351077  RH  073%=      5-min Rain = 0
KLE1 201007Z 19003KT M03/M08 A3032 RMK A01 T10341076  RH  073%=      5-min Rain = 0
KLE1 201008Z 19003KT M03/M08 A3032 RMK A01 T10341076  RH  073%=      5-min Rain = 0
KLE1 201009Z 19003KT M03/M08 A3032 RMK A01 T10341076  RH  073%=      5-min Rain = 0
KLE1 201010Z 20003KT M03/M08 A3032 RMK A01 T10341076  RH  072%=      5-min Rain = 0
KLE1 201011Z 20002KT M04/M08 A3032 RMK A01 T10351077  RH  072%=      5-min Rain = 0
KLE1 201012Z 20002KT M04/M08 A3032 RMK A01 T10371079  RH  073%=      5-min Rain = 0
KLE1 201013Z 20002KT M04/M08 A3032 RMK A01 T10391079  RH  074%=      5-min Rain = 0
KLE1 201014Z 20002KT M04/M08 A3032 RMK A01 T10401079  RH  074%=      5-min Rain = 0
KLE1 201015Z 20002KT M04/M08 A3032 RMK A01 T10411079  RH  075%=      5-min Rain = 0
KLE1 201016Z 20002KT M04/M08 A3031 RMK A01 T10411078  RH  075%=      5-min Rain = 0
KLE1 201017Z 21002KT M04/M08 A3031 RMK A01 T10411077  RH  076%=      5-min Rain = 0
KLE1 201018Z 21002KT M04/M08 A3031 RMK A01 T10411077  RH  076%=      5-min Rain = 0
KLE1 201019Z 21002KT M04/M08 A3031 RMK A01 T10411077  RH  076%=      5-min Rain = 0
KLE1 201020Z 21002KT M04/M08 A3031 RMK A01 T10411077  RH  076%=      5-min Rain = 0
KLE1 201021Z 21002KT M04/M08 A3031 RMK A01 T10401077  RH  076%=      5-min Rain = 0
KLE1 201022Z 20003KT M04/M08 A3031 RMK A01 T10401076  RH  076%=      5-min Rain = 0
KLE1 201023Z 20003KT M04/M08 A3031 RMK A01 T10391076  RH  076%=      5-min Rain = 0
KLE1 201024Z 21003KT M04/M08 A3031 RMK A01 T10381075  RH  075%=      5-min Rain = 0
KLE1 201025Z 21003KT M04/M08 A3031 RMK A01 T10381075  RH  075%=      5-min Rain = 0
KLE1 201026Z 22002KT M04/M08 A3031 RMK A01 T10381076  RH  075%=      5-min Rain = 0
KLE1 201027Z 22002KT M04/M08 A3031 RMK A01 T10371076  RH  075%=      5-min Rain = 0
KLE1 201028Z 22002KT M04/M08 A3031 RMK A01 T10371076  RH  075%=      5-min Rain = 0
KLE1 201029Z 23002KT M04/M08 A3031 RMK A01 T10371076  RH  074%=      5-min Rain = 0
KLE1 201030Z 24002KT M04/M08 A3031 RMK A01 T10371076  RH  074%=      5-min Rain = 0
KLE1 201031Z 23002KT M04/M08 A3031 RMK A01 T10381077  RH  074%=      5-min Rain = 0
KLE1 201032Z 22002KT M04/M08 A3031 RMK A01 T10391077  RH  075%=      5-min Rain = 0
KLE1 201033Z 22003KT M04/M08 A3031 RMK A01 T10391077  RH  075%=      5-min Rain = 0
KLE1 201034Z 22003KT M04/M08 A3031 RMK A01 T10401077  RH  075%=      5-min Rain = 0
KLE1 201035Z 22003KT M04/M08 A3031 RMK A01 T10401076  RH  076%=      5-min Rain = 0
KLE1 201036Z 22003KT M04/M08 A3031 RMK A01 T10401076  RH  076%=      5-min Rain = 0
KLE1 201037Z 22002KT M04/M08 A3031 RMK A01 T10401076  RH  075%=      5-min Rain = 0
KLE1 201038Z 22002KT M04/M08 A303 RMK A01 T10391076  RH  075%=      5-min Rain = 0
KLE1 201039Z 23002KT M04/M08 A3031 RMK A01 T10381076  RH  075%=      5-min Rain = 0
KLE1 201040Z 24002KT M04/M08 A3031 RMK A01 T10381076  RH  075%=      5-min Rain = 0
KLE1 201041Z 24002KT M04/M08 A3031 RMK A01 T10371076  RH  074%=      5-min Rain = 0
KLE1 201042Z 24002KT M04/M08 A3031 RMK A01 T10361076  RH  074%=      5-min Rain = 0
KLE1 201043Z 24002KT M04/M08 A3031 RMK A01 T10361076  RH  074%=      5-min Rain = 0
KLE1 201044Z 24002KT M04/M08 A303 RMK A01 T10361076  RH  074%=      5-min Rain = 0
KLE1 201045Z 24002KT M04/M08 A303 RMK A01 T10361076  RH  074%=      5-min Rain = 0
KLE1 201046Z 24002KT M04/M08 A303 RMK A01 T10361076  RH  074%=      5-min Rain = 0
KLE1 201047Z 23002KT M04/M08 A303 RMK A01 T10361076  RH  074%=      5-min Rain = 0
KLE1 201048Z 24002KT M04/M08 A303 RMK A01 T10361076  RH  074%=      5-min Rain = 0
KLE1 201049Z 24002KT M04/M08 A303 RMK A01 T10361076  RH  074%=      5-min Rain = 0
KLE1 201050Z 24002KT M04/M08 A303 RMK A01 T10351076  RH  073%=      5-min Rain = 0
KLE1 201051Z 23001KT M04/M08 A303 RMK A01 T10351076  RH  073%=      5-min Rain = 0
KLE1 201052Z 23002KT M04/M08 A303 RMK A01 T10351076  RH  073%=      5-min Rain = 0
KLE1 201053Z 23001KT M04/M08 A303 RMK A01 T10351076  RH  073%=      5-min Rain = 0
KLE1 201054Z 23001KT M04/M08 A303 RMK A01 T10361077  RH  073%=      5-min Rain = 0
KLE1 201055Z 23001KT M04/M08 A303 RMK A01 T10351076  RH  073%=      5-min Rain = 0
KLE1 201056Z 21001KT M04/M08 A303 RMK A01 T10351076  RH  073%=      5-min Rain = 0
KLE1 201057Z 20001KT M04/M08 A303 RMK A01 T10351077  RH  073%=      5-min Rain = 0
KLE1 201058Z 21002KT M04/M08 A3029 RMK A01 T10351076  RH  073%=      5-min Rain = 0
KLE1 201059Z 21001KT M04/M08 A3029 RMK A01 T10351076  RH  073%=      5-min Rain = 0
KLE1 201100Z 20001KT M04/M08 A3029 RMK A01 T10361076  RH  073%=      5-min Rain = 0
KLE1 201101Z 20001KT M04/M08 A3029 RMK A01 T10361077  RH  073%=      5-min Rain = 0
KLE1 201102Z 19001KT M04/M08 A3029 RMK A01 T10371077  RH  074%=      5-min Rain = 0
KLE1 201103Z 19001KT M04/M08 A3029 RMK A01 T10371077  RH  074%=      5-min Rain = 0
KLE1 201104Z 19001KT M04/M08 A3029 RMK A01 T10371077  RH  074%=      5-min Rain = 0
KLE1 201105Z 17001KT M04/M08 A3029 RMK A01 T10371077  RH  074%=      5-min Rain = 0
KLE1 201106Z 17001KT M04/M08 A3029 RMK A01 T10371076  RH  074%=      5-min Rain = 0
KLE1 201107Z 17001KT M04/M08 A3029 RMK A01 T10381077  RH  074%=      5-min Rain = 0
KLE1 201108Z 17001KT M04/M08 A3029 RMK A01 T10371076  RH  074%=      5-min Rain = 0
KLE1 201109Z 17001KT M04/M08 A3029 RMK A01 T10371076  RH  074%=      5-min Rain = 0
KLE1 201110Z 19001KT M04/M08 A3029 RMK A01 T10361076  RH  074%=      5-min Rain = 0
KLE1 201111Z 20001KT M04/M08 A3029 RMK A01 T10361076  RH  074%=      5-min Rain = 0
KLE1 201112Z 20001KT M04/M08 A3029 RMK A01 T10361077  RH  074%=      5-min Rain = 0
KLE1 201113Z 21001KT M04/M08 A3029 RMK A01 T10361077  RH  073%=      5-min Rain = 0
KLE1 201114Z 22001KT M04/M08 A3029 RMK A01 T10361077  RH  073%=      5-min Rain = 0
KLE1 201115Z 22000KT M04/M08 A3028 RMK A01 T10361077  RH  074%=      5-min Rain = 0
KLE1 201116Z 22000KT M04/M08 A3029 RMK A01 T10361076  RH  073%=      5-min Rain = 0
KLE1 201117Z 28000KT M04/M08 A3029 RMK A01 T10351076  RH  073%=      5-min Rain = 0
KLE1 201118Z 28001KT M04/M08 A3029 RMK A01 T10351076  RH  073%=      5-min Rain = 0
KLE1 201119Z 29001KT M04/M08 A3029 RMK A01 T10351076  RH  073%=      5-min Rain = 0
KLE1 201120Z 29002KT M04/M08 A3029 RMK A01 T10361078  RH  073%=      5-min Rain = 0
KLE1 201121Z 28002KT M04/M08 A3029 RMK A01 T10401079  RH  074%=      5-min Rain = 0
KLE1 201122Z 28002KT M04/M08 A3029 RMK A01 T10411079  RH  075%=      5-min Rain = 0
KLE1 201123Z 29002KT M04/M08 A3029 RMK A01 T10411079  RH  075%=      5-min Rain = 0
KLE1 201124Z 29002KT M04/M08 A3028 RMK A01 T10411078  RH  075%=      5-min Rain = 0
KLE1 201125Z 30001KT M04/M08 A3028 RMK A01 T10421079  RH  075%=      5-min Rain = 0
KLE1 201126Z 30001KT M04/M08 A3028 RMK A01 T10431079  RH  076%=      5-min Rain = 0
KLE1 201127Z 31001KT M04/M08 A3028 RMK A01 T10441079  RH  076%=      5-min Rain = 0
KLE1 201128Z 31001KT M04/M08 A3028 RMK A01 T10441079  RH  077%=      5-min Rain = 0
KLE1 201129Z 31001KT M04/M08 A3028 RMK A01 T10441078  RH  077%=      5-min Rain = 0
KLE1 201130Z 30001KT M05/M08 A3029 RMK A01 T10451079  RH  077%=      5-min Rain = 0
KLE1 201131Z 29001KT M05/M08 A3029 RMK A01 T10461079  RH  078%=      5-min Rain = 0
KLE1 201132Z 28000KT M05/M08 A3028 RMK A01 T10461078  RH  078%=      5-min Rain = 0
KLE1 201133Z 00000KT M04/M08 A3028 RMK A01 T10441077  RH  078%=      5-min Rain = 0
KLE1 201134Z 00000KT M04/M08 A3028 RMK A01 T10431076  RH  077%=      5-min Rain = 0
KLE1 201135Z 00000KT M04/M08 A3028 RMK A01 T10411076  RH  077%=      5-min Rain = 0
KLE1 201136Z 21000KT M04/M08 A3028 RMK A01 T10401076  RH  076%=      5-min Rain = 0
KLE1 201137Z 20000KT M04/M08 A3028 RMK A01 T10381076  RH  075%=      5-min Rain = 0
KLE1 201138Z 00000KT M04/M08 A3028 RMK A01 T10371076  RH  074%=      5-min Rain = 0
KLE1 201139Z 00000KT M04/M08 A3028 RMK A01 T10361076  RH  074%=      5-min Rain = 0
KLE1 201140Z 00000KT M04/M08 A3028 RMK A01 T10351076  RH  073%=      5-min Rain = 0
KLE1 201141Z 00000KT M04/M08 A3028 RMK A01 T10351077  RH  073%=      5-min Rain = 0
KLE1 201142Z 00000KT M03/M08 A3028 RMK A01 T10341077  RH  072%=      5-min Rain = 0
KLE1 201143Z 00000KT M03/M08 A3028 RMK A01 T10341077  RH  072%=      5-min Rain = 0
KLE1 201144Z 00000KT M03/M08 A3028 RMK A01 T10341077  RH  072%=      5-min Rain = 0
KLE1 201145Z 00000KT M03/M08 A3028 RMK A01 T10341078  RH  072%=      5-min Rain = 0
KLE1 201146Z 00000KT M03/M08 A3028 RMK A01 T10331077  RH  071%=      5-min Rain = 0
KLE1 201147Z 00000KT M03/M08 A3028 RMK A01 T10331078  RH  071%=      5-min Rain = 0
KLE1 201148Z 00000KT M03/M08 A3028 RMK A01 T10331078  RH  071%=      5-min Rain = 0
KLE1 201149Z 34000KT M03/M08 A3028 RMK A01 T10321077  RH  071%=      5-min Rain = 0
KLE1 201150Z 00000KT M03/M08 A3028 RMK A01 T10331078  RH  071%=      5-min Rain = 0
KLE1 201151Z 00000KT M03/M08 A3028 RMK A01 T10331078  RH  071%=      5-min Rain = 0
KLE1 201152Z 00000KT M03/M08 A3028 RMK A01 T10331078  RH  071%=      5-min Rain = 0
KLE1 201153Z 02000KT M03/M08 A3028 RMK A01 T10341078  RH  072%=      5-min Rain = 0
KLE1 201154Z 03000KT M03/M08 A3028 RMK A01 T10341078  RH  072%=      5-min Rain = 0
KLE1 201155Z 04001KT M03/M08 A3028 RMK A01 T10341078  RH  072%=      5-min Rain = 0
KLE1 201156Z 04001KT M03/M08 A3028 RMK A01 T10341078  RH  071%=      5-min Rain = 0
KLE1 201157Z 05001KT M03/M08 A3028 RMK A01 T10341078  RH  072%=      5-min Rain = 0
KLE1 201158Z 05001KT M04/M08 A3028 RMK A01 T10351079  RH  072%=      5-min Rain = 0
KLE1 201159Z 09001KT M04/M08 A3028 RMK A01 T10361078  RH  072%=      5-min Rain = 0
KLE1 201200Z 09001KT M04/M08 A3027 RMK A01 T10361078  RH  072%=      5-min Rain = 0
KLE1 201201Z 08001KT M04/M08 A3027 RMK A01 T10351077  RH  072%=      5-min Rain = 0
KLE1 201202Z 12001KT M03/M08 A3027 RMK A01 T10331077  RH  072%=      5-min Rain = 0
KLE1 201203Z 10001KT M03/M08 A3028 RMK A01 T10331078  RH  071%=      5-min Rain = 0
KLE1 201204Z 07001KT M03/M08 A3028 RMK A01 T10321078  RH  071%=      5-min Rain = 0
KLE1 201205Z 06002KT M03/M08 A3028 RMK A01 T10331078  RH  071%=      5-min Rain = 0
KLE1 201206Z 05002KT M03/M08 A3028 RMK A01 T10331078  RH  071%=      5-min Rain = 0
KLE1 201207Z 05003KT M04/M08 A3028 RMK A01 T10351080  RH  071%=      5-min Rain = 0
KLE1 201208Z 04003KT M04/M08 A3028 RMK A01 T10371081  RH  072%=      5-min Rain = 0
KLE1 201209Z 05002KT M04/M08 A3028 RMK A01 T10391082  RH  072%=      5-min Rain = 0
KLE1 201210Z 05003KT M04/M08 A3028 RMK A01 T10411081  RH  073%=      5-min Rain = 0
KLE1 201211Z 05002KT M04/M08 A3028 RMK A01 T10421081  RH  074%=      5-min Rain = 0
KLE1 201212Z 07002KT M04/M08 A3027 RMK A01 T10421080  RH  075%=      5-min Rain = 0
KLE1 201213Z 08002KT M04/M08 A3027 RMK A01 T10421080  RH  075%=      5-min Rain = 0
KLE1 201214Z 09002KT M04/M08 A3027 RMK A01 T10431080  RH  075%=      5-min Rain = 0
KLE1 201215Z 10002KT M04/M08 A3027 RMK A01 T10421080  RH  075%=      5-min Rain = 0
KLE1 201216Z 11002KT M04/M08 A3027 RMK A01 T10421079  RH  075%=      5-min Rain = 0
KLE1 201217Z 10002KT M04/M08 A3027 RMK A01 T10411079  RH  075%=      5-min Rain = 0
KLE1 201218Z 11002KT M04/M08 A3027 RMK A01 T10411079  RH  075%=      5-min Rain = 0
KLE1 201219Z 11002KT M04/M08 A3027 RMK A01 T10421080  RH  075%=      5-min Rain = 0
KLE1 201220Z 13002KT M04/M08 A3027 RMK A01 T10431080  RH  075%=      5-min Rain = 0
KLE1 201221Z 12002KT M04/M08 A3027 RMK A01 T10421079  RH  075%=      5-min Rain = 0
KLE1 201222Z 11002KT M04/M08 A3027 RMK A01 T10411079  RH  075%=      5-min Rain = 0
KLE1 201223Z 12002KT M04/M08 A3027 RMK A01 T10401079  RH  075%=      5-min Rain = 0
KLE1 201224Z 12003KT M04/M08 A3027 RMK A01 T10391079  RH  074%=      5-min Rain = 0
KLE1 201225Z 12002KT M04/M08 A3027 RMK A01 T10391079  RH  074%=      5-min Rain = 0
KLE1 201226Z 12003KT M04/M08 A3027 RMK A01 T10381079  RH  074%=      5-min Rain = 0
KLE1 201227Z 12002KT M04/M08 A3027 RMK A01 T10391079  RH  073%=      5-min Rain = 0
KLE1 201228Z 13003KT M04/M08 A3027 RMK A01 T10381079  RH  073%=      5-min Rain = 0
KLE1 201229Z 13002KT M04/M08 A3027 RMK A01 T10381079  RH  073%=      5-min Rain = 0
KLE1 201230Z 14002KT M04/M08 A3027 RMK A01 T10391080  RH  073%=      5-min Rain = 0
KLE1 201231Z 14002KT M04/M08 A3027 RMK A01 T10411081  RH  074%=      5-min Rain = 0
KLE1 201232Z 14003KT M04/M08 A3027 RMK A01 T10411080  RH  074%=      5-min Rain = 0
KLE1 201233Z 14003KT M04/M08 A3027 RMK A01 T10421080  RH  075%=      5-min Rain = 0
KLE1 201234Z 14003KT M04/M08 A3027 RMK A01 T10431080  RH  075%=      5-min Rain = 0
KLE1 201235Z 14003KT M04/M08 A3027 RMK A01 T10431080  RH  075%=      5-min Rain = 0
KLE1 201236Z 13004KT M04/M08 A3027 RMK A01 T10441080  RH  076%=      5-min Rain = 0
KLE1 201237Z 13004KT M05/M08 A3027 RMK A01 T10451080  RH  076%=      5-min Rain = 0
KLE1 201238Z 13003KT M05/M08 A3027 RMK A01 T10451080  RH  076%=      5-min Rain = 0
KLE1 201239Z 13003KT M05/M08 A3027 RMK A01 T10461080  RH  077%=      5-min Rain = 0
KLE1 201240Z 13003KT M05/M08 A3027 RMK A01 T10471081  RH  077%=      5-min Rain = 0
KLE1 201241Z 12003KT M05/M08 A3027 RMK A01 T10471080  RH  078%=      5-min Rain = 0
KLE1 201242Z 12003KT M05/M08 A3027 RMK A01 T10471080  RH  078%=      5-min Rain = 0
KLE1 201243Z 12003KT M05/M08 A3027 RMK A01 T10471080  RH  078%=      5-min Rain = 0
KLE1 201244Z 11004KT M05/M08 A3027 RMK A01 T10461080  RH  078%=      5-min Rain = 0
KLE1 201245Z 11004KT M05/M08 A3027 RMK A01 T10461080  RH  078%=      5-min Rain = 0
KLE1 201246Z 10004KT M05/M08 A3027 RMK A01 T10471080  RH  078%=      5-min Rain = 0
KLE1 201247Z 10004KT M05/M08 A3027 RMK A01 T10481080  RH  078%=      5-min Rain = 0
KLE1 201248Z 10003KT M05/M08 A3027 RMK A01 T10491081  RH  078%=      5-min Rain = 0
KLE1 201249Z 10003KT M05/M08 A3027 RMK A01 T10491081  RH  079%=      5-min Rain = 0
KLE1 201250Z 11003KT M05/M08 A3027 RMK A01 T10491080  RH  079%=      5-min Rain = 0
KLE1 201251Z 11002KT M05/M08 A3027 RMK A01 T10491080  RH  079%=      5-min Rain = 0
KLE1 201252Z 13003KT M05/M08 A3027 RMK A01 T10481079  RH  079%=      5-min Rain = 0
KLE1 201253Z 14003KT M05/M08 A3027 RMK A01 T10461077  RH  079%=      5-min Rain = 0
KLE1 201254Z 15002KT M05/M08 A3027 RMK A01 T10451077  RH  078%=      5-min Rain = 0
KLE1 201255Z 17002KT M04/M08 A3027 RMK A01 T10431077  RH  077%=      5-min Rain = 0
KLE1 201256Z 16002KT M04/M08 A3027 RMK A01 T10431077  RH  077%=      5-min Rain = 0
KLE1 201257Z 14002KT M04/M08 A3027 RMK A01 T10421078  RH  076%=      5-min Rain = 0
KLE1 201258Z 17001KT M04/M08 A3027 RMK A01 T10421078  RH  076%=      5-min Rain = 0
KLE1 201259Z 19001KT M05/M08 A3027 RMK A01 T10451081  RH  075%=      5-min Rain = 0
KLE1 201300Z 20001KT M05/M08 A3027 RMK A01 T10481083  RH  076%=      5-min Rain = 0
KLE1 201301Z 23002KT M05/M08 A3027 RMK A01 T10501084  RH  077%=      5-min Rain = 0
KLE1 201302Z 18002KT M05/M08 A3027 RMK A01 T10531084  RH  079%=      5-min Rain = 0
KLE1 201303Z 24002KT M05/M08 A3027 RMK A01 T10541083  RH  080%=      5-min Rain = 0
KLE1 201304Z 21003KT M05/M08 A3027 RMK A01 T10541082  RH  081%=      5-min Rain = 0
KLE1 201305Z 21003KT M05/M08 A3027 RMK A01 T10541080  RH  082%=      5-min Rain = 0
KLE1 201306Z 20002KT M05/M08 A3027 RMK A01 T10531079  RH  082%=      5-min Rain = 0
KLE1 201307Z 21002KT M05/M08 A3027 RMK A01 T10531080  RH  082%=      5-min Rain = 0
KLE1 201308Z 20002KT M05/M08 A3027 RMK A01 T10541080  RH  082%=      5-min Rain = 0
KLE1 201309Z 20002KT M05/M08 A3027 RMK A01 T10541081  RH  082%=      5-min Rain = 0
KLE1 201310Z 21002KT M06/M08 A3027 RMK A01 T10551080  RH  082%=      5-min Rain = 0
KLE1 201311Z 20003KT M06/M08 A3027 RMK A01 T10551081  RH  082%=      5-min Rain = 0
KLE1 201312Z 20002KT M06/M08 A3027 RMK A01 T10551080  RH  083%=      5-min Rain = 0
KLE1 201313Z 20002KT M06/M08 A3027 RMK A01 T10551080  RH  083%=      5-min Rain = 0
KLE1 201314Z 20002KT M06/M08 A3027 RMK A01 T10551080  RH  083%=      5-min Rain = 0
KLE1 201315Z 21003KT M06/M08 A3027 RMK A01 T10551080  RH  083%=      5-min Rain = 0
KLE1 201316Z 21003KT M06/M08 A3027 RMK A01 T10561080  RH  083%=      5-min Rain = 0
KLE1 201317Z 22003KT M06/M08 A3027 RMK A01 T10571081  RH  083%=      5-min Rain = 0
KLE1 201318Z 23003KT M06/M08 A3027 RMK A01 T10581082  RH  083%=      5-min Rain = 0
KLE1 201319Z 22003KT M06/M08 A3027 RMK A01 T10591083  RH  084%=      5-min Rain = 0
KLE1 201320Z 23003KT M06/M08 A3027 RMK A01 T10601083  RH  084%=      5-min Rain = 0
KLE1 201321Z 24003KT M06/M08 A3027 RMK A01 T10611083  RH  084%=      5-min Rain = 0
KLE1 201322Z 25003KT M06/M08 A3027 RMK A01 T10621083  RH  085%=      5-min Rain = 0
KLE1 201323Z 25003KT M06/M08 A3028 RMK A01 T10621083  RH  085%=      5-min Rain = 0
KLE1 201324Z 25003KT M06/M08 A3028 RMK A01 T10631083  RH  086%=      5-min Rain = 0
KLE1 201325Z 25003KT M06/M08 A3028 RMK A01 T10621083  RH  086%=      5-min Rain = 0
KLE1 201326Z 26003KT M06/M08 A3028 RMK A01 T10621082  RH  086%=      5-min Rain = 0
KLE1 201327Z 26002KT M06/M08 A3028 RMK A01 T10621081  RH  086%=      5-min Rain = 0
KLE1 201328Z 27002KT M06/M08 A3028 RMK A01 T10611081  RH  086%=      5-min Rain = 0
KLE1 201329Z 26002KT M06/M08 A3028 RMK A01 T10611082  RH  086%=      5-min Rain = 0
KLE1 201330Z 26002KT M06/M08 A3028 RMK A01 T10611081  RH  086%=      5-min Rain = 0
KLE1 201331Z 26002KT M06/M08 A3028 RMK A01 T10611081  RH  086%=      5-min Rain = 0
KLE1 201332Z 26002KT M06/M08 A3028 RMK A01 T10611081  RH  086%=      5-min Rain = 0
KLE1 201333Z 26002KT M06/M08 A3028 RMK A01 T10611081  RH  086%=      5-min Rain = 0
KLE1 201334Z 26002KT M06/M08 A3028 RMK A01 T10611081  RH  086%=      5-min Rain = 0
KLE1 201335Z 26002KT M06/M08 A3028 RMK A01 T10611081  RH  086%=      5-min Rain = 0
KLE1 201336Z 26002KT M06/M08 A3028 RMK A01 T10611081  RH  086%=      5-min Rain = 0
KLE1 201337Z 26002KT M06/M08 A3028 RMK A01 T10611081  RH  085%=      5-min Rain = 0
KLE1 201338Z 27002KT M06/M08 A3028 RMK A01 T10601081  RH  085%=      5-min Rain = 0
KLE1 201339Z 27002KT M06/M08 A3028 RMK A01 T10601081  RH  085%=      5-min Rain = 0
KLE1 201340Z 27002KT M06/M08 A3028 RMK A01 T10601082  RH  085%=      5-min Rain = 0
KLE1 201341Z 27002KT M06/M08 A3028 RMK A01 T10601082  RH  084%=      5-min Rain = 0
KLE1 201342Z 27002KT M06/M08 A3028 RMK A01 T10601082  RH  084%=      5-min Rain = 0
KLE1 201343Z 27002KT M06/M08 A3028 RMK A01 T10591082  RH  084%=      5-min Rain = 0
KLE1 201344Z 28002KT M06/M08 A3028 RMK A01 T10591082  RH  084%=      5-min Rain = 0
KLE1 201345Z 28002KT M06/M08 A3028 RMK A01 T10591082  RH  084%=      5-min Rain = 0
KLE1 201346Z 27002KT M06/M08 A3028 RMK A01 T10591082  RH  084%=      5-min Rain = 0
KLE1 201347Z 28003KT M06/M08 A3028 RMK A01 T10591082  RH  084%=      5-min Rain = 0
KLE1 201348Z 27003KT M06/M08 A3028 RMK A01 T10581081  RH  084%=      5-min Rain = 0
KLE1 201349Z 27003KT M06/M08 A3028 RMK A01 T10581081  RH  084%=      5-min Rain = 0
KLE1 201350Z 28003KT M06/M08 A3028 RMK A01 T10581081  RH  084%=      5-min Rain = 0
KLE1 201351Z 28003KT M06/M08 A3028 RMK A01 T10581081  RH  084%=      5-min Rain = 0
KLE1 201352Z 28003KT M06/M08 A3028 RMK A01 T10581082  RH  084%=      5-min Rain = 0
KLE1 201353Z 28003KT M06/M08 A3028 RMK A01 T10581081  RH  084%=      5-min Rain = 0
KLE1 201354Z 28002KT M06/M08 A3028 RMK A01 T10591081  RH  084%=      5-min Rain = 0
KLE1 201355Z 28002KT M06/M08 A3028 RMK A01 T10581081  RH  084%=      5-min Rain = 0
KLE1 201356Z 29002KT M06/M08 A3028 RMK A01 T10591081  RH  084%=      5-min Rain = 0
KLE1 201357Z 29003KT M06/M08 A3028 RMK A01 T10581081  RH  084%=      5-min Rain = 0
KLE1 201358Z 29003KT M06/M08 A3028 RMK A01 T10581081  RH  084%=      5-min Rain = 0
KLE1 201359Z 29003KT M06/M08 A3028 RMK A01 T10581081  RH  084%=      5-min Rain = 0
KLE1 201400Z 29003KT M06/M08 A3027 RMK A01 T10581081  RH  084%=      5-min Rain = 0
KLE1 201401Z 29003KT M06/M08 A3027 RMK A01 T10581081  RH  084%=      5-min Rain = 0
KLE1 201402Z 27003KT M06/M08 A3027 RMK A01 T10581081  RH  084%=      5-min Rain = 0
KLE1 201403Z 28002KT M06/M08 A3027 RMK A01 T10571081  RH  084%=      5-min Rain = 0
KLE1 201404Z 28003KT M06/M08 A3027 RMK A01 T10581081  RH  084%=      5-min Rain = 0
KLE1 201405Z 28003KT M06/M08 A3027 RMK A01 T10581081  RH  084%=      5-min Rain = 0
KLE1 201406Z 28003KT M06/M08 A3027 RMK A01 T10581081  RH  084%=      5-min Rain = 0
KLE1 201407Z 28003KT M06/M08 A3027 RMK A01 T10571081  RH  084%=      5-min Rain = 0
KLE1 201408Z 28003KT M06/M08 A3027 RMK A01 T10571081  RH  084%=      5-min Rain = 0
KLE1 201409Z 28004KT M06/M08 A3027 RMK A01 T10571081  RH  083%=      5-min Rain = 0
KLE1 201410Z 28004KT M06/M08 A3027 RMK A01 T10571081  RH  083%=      5-min Rain = 0
KLE1 201411Z 28004KT M06/M08 A3027 RMK A01 T10571082  RH  083%=      5-min Rain = 0
KLE1 201412Z 29004KT M06/M08 A3027 RMK A01 T10571081  RH  083%=      5-min Rain = 0
KLE1 201413Z 28004KT M06/M08 A3027 RMK A01 T10571081  RH  083%=      5-min Rain = 0
KLE1 201414Z 28004KT M06/M08 A3027 RMK A01 T10571082  RH  083%=      5-min Rain = 0
KLE1 201415Z 28004KT M06/M08 A3027 RMK A01 T10581081  RH  083%=      5-min Rain = 0
KLE1 201416Z 28004KT M06/M08 A3027 RMK A01 T10581081  RH  084%=      5-min Rain = 0
KLE1 201417Z 28004KT M06/M08 A3027 RMK A01 T10581081  RH  084%=      5-min Rain = 0
KLE1 201418Z 28003KT M06/M08 A3027 RMK A01 T10581081  RH  084%=      5-min Rain = 0
KLE1 201419Z 28003KT M06/M08 A3027 RMK A01 T10581081  RH  084%=      5-min Rain = 0
KLE1 201420Z 28003KT M06/M08 A3027 RMK A01 T10581081  RH  084%=      5-min Rain = 0
KLE1 201421Z 28002KT M06/M08 A3027 RMK A01 T10581081  RH  084%=      5-min Rain = 0
KLE1 201422Z 28003KT M06/M08 A3027 RMK A01 T10571081  RH  083%=      5-min Rain = 0
KLE1 201423Z 28003KT M06/M08 A3027 RMK A01 T10561081  RH  083%=      5-min Rain = 0
KLE1 201424Z 28003KT M06/M08 A3027 RMK A01 T10551081  RH  082%=      5-min Rain = 0
KLE1 201425Z 28003KT M06/M08 A3027 RMK A01 T10551080  RH  082%=      5-min Rain = 0
KLE1 201426Z 28003KT M05/M08 A3027 RMK A01 T10541080  RH  082%=      5-min Rain = 0
KLE1 201427Z 28003KT M05/M08 A3027 RMK A01 T10531079  RH  082%=      5-min Rain = 0
KLE1 201428Z 28004KT M05/M08 A3027 RMK A01 T10531078  RH  082%=      5-min Rain = 0
KLE1 201429Z 29004KT M05/M08 A3027 RMK A01 T10521077  RH  083%=      5-min Rain = 0
KLE1 201430Z 29004KT M05/M08 A3027 RMK A01 T10531077  RH  083%=      5-min Rain = 0
KLE1 201431Z 29004KT M05/M08 A3027 RMK A01 T10531076  RH  084%=      5-min Rain = 0
KLE1 201432Z 29004KT M05/M08 A3027 RMK A01 T10521075  RH  084%=      5-min Rain = 0
KLE1 201433Z 30004KT M05/M08 A3027 RMK A01 T10521075  RH  084%=      5-min Rain = 0
KLE1 201434Z 30003KT M05/M07 A3027 RMK A01 T10521074  RH  084%=      5-min Rain = 0
KLE1 201435Z 31003KT M05/M07 A3027 RMK A01 T10511073  RH  085%=      5-min Rain = 0
KLE1 201436Z 31003KT M05/M07 A3027 RMK A01 T10511073  RH  085%=      5-min Rain = 0
KLE1 201437Z 32003KT M05/M07 A3027 RMK A01 T10501072  RH  084%=      5-min Rain = 0
KLE1 201438Z 32003KT M05/M07 A3027 RMK A01 T10501072  RH  085%=      5-min Rain = 0
KLE1 201439Z 32003KT M05/M07 A3027 RMK A01 T10491071  RH  085%=      5-min Rain = 0
KLE1 201440Z 32003KT M05/M07 A3027 RMK A01 T10481070  RH  084%=      5-min Rain = 0
KLE1 201441Z 32003KT M05/M07 A3027 RMK A01 T10471069  RH  084%=      5-min Rain = 0
KLE1 201442Z 32003KT M05/M07 A3027 RMK A01 T10461068  RH  085%=      5-min Rain = 0
KLE1 201443Z 32003KT M05/M07 A3028 RMK A01 T10451068  RH  084%=      5-min Rain = 0
KLE1 201444Z 31003KT M04/M07 A3027 RMK A01 T10441068  RH  083%=      5-min Rain = 0
KLE1 201445Z 31002KT M04/M07 A3027 RMK A01 T10441068  RH  083%=      5-min Rain = 0
KLE1 201446Z 30003KT M04/M07 A3027 RMK A01 T10431068  RH  083%=      5-min Rain = 0
KLE1 201447Z 30003KT M04/M07 A3027 RMK A01 T10431067  RH  083%=      5-min Rain = 0
KLE1 201448Z 29002KT M04/M07 A3027 RMK A01 T10421067  RH  083%=      5-min Rain = 0
KLE1 201449Z 29002KT M04/M07 A3027 RMK A01 T10421068  RH  082%=      5-min Rain = 0
KLE1 201450Z 29003KT M04/M07 A3027 RMK A01 T10411067  RH  082%=      5-min Rain = 0
KLE1 201451Z 29003KT M04/M07 A3027 RMK A01 T10401067  RH  081%=      5-min Rain = 0
KLE1 201452Z 29003KT M04/M07 A3027 RMK A01 T10391068  RH  081%=      5-min Rain = 0
KLE1 201453Z 30003KT M04/M07 A3027 RMK A01 T10381067  RH  081%=      5-min Rain = 0
KLE1 201454Z 29004KT M04/M07 A3027 RMK A01 T10371067  RH  080%=      5-min Rain = 0
KLE1 201455Z 29003KT M04/M07 A3027 RMK A01 T10371067  RH  079%=      5-min Rain = 0
KLE1 201456Z 28003KT M04/M07 A3027 RMK A01 T10361067  RH  079%=      5-min Rain = 0
KLE1 201457Z 28002KT M04/M07 A3026 RMK A01 T10361065  RH  080%=      5-min Rain = 0
KLE1 201458Z 28002KT M04/M07 A3026 RMK A01 T10361066  RH  080%=      5-min Rain = 0
KLE1 201459Z 28002KT M04/M07 A3026 RMK A01 T10351066  RH  079%=      5-min Rain = 0
KLE1 201500Z 27002KT M04/M07 A3026 RMK A01 T10351065  RH  080%=      5-min Rain = 0
KLE1 201501Z 27002KT M03/M06 A3026 RMK A01 T10341063  RH  080%=      5-min Rain = 0
KLE1 201502Z 27002KT M03/M06 A3026 RMK A01 T10341063  RH  080%=      5-min Rain = 0
KLE1 201503Z 28002KT M03/M06 A3026 RMK A01 T10331064  RH  079%=      5-min Rain = 0
KLE1 201504Z 28002KT M03/M06 A3026 RMK A01 T10331063  RH  079%=      5-min Rain = 0
KLE1 201505Z 29002KT M03/M07 A3026 RMK A01 T10321066  RH  078%=      5-min Rain = 0
KLE1 201506Z 28002KT M03/M06 A3026 RMK A01 T10321064  RH  079%=      5-min Rain = 0
KLE1 201507Z 28002KT M03/M06 A3026 RMK A01 T10321063  RH  079%=      5-min Rain = 0
KLE1 201508Z 28002KT M03/M06 A3026 RMK A01 T10311063  RH  079%=      5-min Rain = 0
KLE1 201509Z 27002KT M03/M07 A3026 RMK A01 T10311065  RH  078%=      5-min Rain = 0
KLE1 201510Z 27001KT M03/M06 A3026 RMK A01 T10311063  RH  078%=      5-min Rain = 0
KLE1 201511Z 27001KT M03/M06 A3026 RMK A01 T10301062  RH  079%=      5-min Rain = 0
KLE1 201512Z 26001KT M03/M06 A3026 RMK A01 T10291064  RH  077%=      5-min Rain = 0
KLE1 201513Z 28001KT M03/M06 A3026 RMK A01 T10291064  RH  077%=      5-min Rain = 0
KLE1 201514Z 28001KT M03/M06 A3026 RMK A01 T10281064  RH  077%=      5-min Rain = 0
KLE1 201515Z 29001KT M03/M06 A3026 RMK A01 T10281062  RH  077%=      5-min Rain = 0
KLE1 201516Z 28001KT M03/M06 A3026 RMK A01 T10271062  RH  077%=      5-min Rain = 0
KLE1 201517Z 29001KT M03/M07 A3026 RMK A01 T10271065  RH  076%=      5-min Rain = 0
KLE1 201518Z 26002KT M03/M07 A3026 RMK A01 T10271065  RH  075%=      5-min Rain = 0
KLE1 201519Z 26002KT M03/M06 A3026 RMK A01 T10271063  RH  076%=      5-min Rain = 0
KLE1 201520Z 26001KT M03/M06 A3026 RMK A01 T10261062  RH  077%=      5-min Rain = 0
KLE1 201521Z 25001KT M03/M06 A3026 RMK A01 T10251061  RH  077%=      5-min Rain = 0
KLE1 201522Z 25001KT M03/M06 A3026 RMK A01 T10251060  RH  077%=      5-min Rain = 0
KLE1 201523Z 23001KT M02/M06 A3026 RMK A01 T10241062  RH  075%=      5-min Rain = 0
KLE1 201524Z 24002KT M02/M06 A3026 RMK A01 T10231060  RH  076%=      5-min Rain = 0
KLE1 201525Z 23002KT M02/M06 A3026 RMK A01 T10221058  RH  076%=      5-min Rain = 0
KLE1 201526Z 24002KT M02/M06 A3026 RMK A01 T10211058  RH  076%=      5-min Rain = 0
KLE1 201527Z 23003KT M02/M06 A3026 RMK A01 T10191056  RH  076%=      5-min Rain = 0
KLE1 201528Z 24003KT M02/M05 A3026 RMK A01 T10171054  RH  076%=      5-min Rain = 0
KLE1 201529Z 25002KT M02/M05 A3026 RMK A01 T10151052  RH  076%=      5-min Rain = 0
KLE1 201530Z 25003KT M02/M05 A3026 RMK A01 T10151054  RH  075%=      5-min Rain = 0
KLE1 201531Z 24003KT M02/M06 A3026 RMK A01 T10151057  RH  073%=      5-min Rain = 0
KLE1 201532Z 24003KT M01/M06 A3026 RMK A01 T10141058  RH  072%=      5-min Rain = 0
KLE1 201533Z 25002KT M01/M06 A3026 RMK A01 T10141058  RH  072%=      5-min Rain = 0
KLE1 201534Z 24003KT M01/M06 A3026 RMK A01 T10131057  RH  072%=      5-min Rain = 0
KLE1 201535Z 24003KT M01/M06 A3026 RMK A01 T10131059  RH  071%=      5-min Rain = 0
KLE1 201536Z 24003KT M01/M06 A3026 RMK A01 T10131059  RH  071%=      5-min Rain = 0
KLE1 201537Z 24003KT M01/M06 A3026 RMK A01 T10131059  RH  071%=      5-min Rain = 0
KLE1 201538Z 24003KT M01/M06 A3026 RMK A01 T10131059  RH  071%=      5-min Rain = 0
KLE1 201539Z 23002KT M01/M06 A3026 RMK A01 T10121059  RH  071%=      5-min Rain = 0
KLE1 201540Z 24003KT M01/M06 A3026 RMK A01 T10121056  RH  072%=      5-min Rain = 0
KLE1 201541Z 24002KT M01/M06 A3025 RMK A01 T10111058  RH  071%=      5-min Rain = 0
KLE1 201542Z 23003KT M01/M06 A3025 RMK A01 T10121057  RH  071%=      5-min Rain = 0
KLE1 201543Z 23004KT M01/M06 A3025 RMK A01 T10111058  RH  071%=      5-min Rain = 0
KLE1 201544Z 23002KT M01/M06 A3025 RMK A01 T10111058  RH  071%=      5-min Rain = 0
KLE1 201545Z 24002KT M01/M06 A3025 RMK A01 T10101055  RH  072%=      5-min Rain = 0
KLE1 201546Z 23002KT M01/M06 A3025 RMK A01 T10091056  RH  070%=      5-min Rain = 0
KLE1 201547Z 24002KT M01/M06 A3025 RMK A01 T10091057  RH  070%=      5-min Rain = 0
KLE1 201548Z 24002KT M01/M06 A3025 RMK A01 T10091058  RH  069%=      5-min Rain = 0
KLE1 201549Z 23003KT M01/M06 A3025 RMK A01 T10091057  RH  070%=      5-min Rain = 0
KLE1 201550Z 24002KT M01/M06 A3025 RMK A01 T10081059  RH  068%=      5-min Rain = 0
KLE1 201551Z 22002KT M01/M06 A3025 RMK A01 T10081057  RH  069%=      5-min Rain = 0
KLE1 201552Z 22002KT M01/M06 A3025 RMK A01 T10071057  RH  069%=      5-min Rain = 0
KLE1 201553Z 21002KT M01/M06 A3025 RMK A01 T10061055  RH  069%=      5-min Rain = 0
KLE1 201554Z 22001KT M01/M06 A3025 RMK A01 T10061056  RH  069%=      5-min Rain = 0
KLE1 201555Z 24001KT M01/M06 A3025 RMK A01 T10051055  RH  069%=      5-min Rain = 0
KLE1 201556Z 23002KT M00/M05 A3025 RMK A01 T10041052  RH  070%=      5-min Rain = 0
KLE1 201557Z 25002KT M00/M05 A3025 RMK A01 T10021051  RH  070%=      5-min Rain = 0
KLE1 201558Z 26002KT M00/M05 A3025 RMK A01 T10011052  RH  069%=      5-min Rain = 0
KLE1 201559Z 21001KT M00/M05 A3025 RMK A01 T10011052  RH  068%=      5-min Rain = 0
KLE1 201600Z 22002KT 00/05 A3025 RMK A01 T00-00-51  RH  069%=      5-min Rain = 0
KLE1 201601Z 21001KT 00/M05 A3025 RMK A01 T00011052  RH  067%=      5-min Rain = 0
KLE1 201602Z 17002KT 00/M05 A3025 RMK A01 T00011052  RH  067%=      5-min Rain = 0
KLE1 201603Z 18003KT 00/M05 A3025 RMK A01 T00031052  RH  066%=      5-min Rain = 0
KLE1 201604Z 18003KT 00/M05 A3025 RMK A01 T00041053  RH  065%=      5-min Rain = 0
KLE1 201605Z 17002KT 00/M06 A3025 RMK A01 T00041055  RH  065%=      5-min Rain = 0
KLE1 201606Z 18003KT 00/M06 A3025 RMK A01 T00031055  RH  065%=      5-min Rain = 0
KLE1 201607Z 16003KT 00/M06 A3025 RMK A01 T00041055  RH  065%=      5-min Rain = 0
KLE1 201608Z 16002KT 00/M05 A3024 RMK A01 T00041054  RH  065%=      5-min Rain = 0
KLE1 201609Z 18003KT 00/M05 A3024 RMK A01 T00041054  RH  065%=      5-min Rain = 0
KLE1 201610Z 18003KT 01/M05 A3024 RMK A01 T00051054  RH  065%=      5-min Rain = 0
KLE1 201611Z 17002KT 01/M05 A3024 RMK A01 T00051053  RH  065%=      5-min Rain = 0
KLE1 201612Z 18002KT 01/M05 A3024 RMK A01 T00071051  RH  065%=      5-min Rain = 0
KLE1 201613Z 17004KT 01/M05 A3024 RMK A01 T00071054  RH  064%=      5-min Rain = 0
KLE1 201614Z 17004KT 01/M05 A3024 RMK A01 T00081054  RH  063%=      5-min Rain = 0
KLE1 201615Z 15004KT 01/M05 A3024 RMK A01 T00081054  RH  063%=      5-min Rain = 0
KLE1 201616Z 16004KT 01/M05 A3024 RMK A01 T00091052  RH  064%=      5-min Rain = 0
KLE1 201617Z 17003KT 01/M06 A3024 RMK A01 T00091055  RH  062%=      5-min Rain = 0
KLE1 201618Z 13003KT 01/M05 A3024 RMK A01 T00091053  RH  064%=      5-min Rain = 0
KLE1 201619Z 13002KT 01/M05 A3025 RMK A01 T00101051  RH  064%=      5-min Rain = 0
KLE1 201620Z 13003KT 01/M05 A3025 RMK A01 T00111050  RH  064%=      5-min Rain = 0
KLE1 201621Z 14003KT 01/M05 A3024 RMK A01 T00111051  RH  063%=      5-min Rain = 0
KLE1 201622Z 14003KT 01/M05 A3024 RMK A01 T00111052  RH  063%=      5-min Rain = 0
KLE1 201623Z 15004KT 01/M05 A3024 RMK A01 T00111052  RH  063%=      5-min Rain = 0
KLE1 201624Z 14003KT 01/M05 A3024 RMK A01 T00101053  RH  063%=      5-min Rain = 0
KLE1 201625Z 14003KT 01/M05 A3024 RMK A01 T00101053  RH  063%=      5-min Rain = 0
KLE1 201626Z 13004KT 01/M05 A3024 RMK A01 T00111052  RH  063%=      5-min Rain = 0
KLE1 201627Z 15004KT 01/M05 A3024 RMK A01 T00111053  RH  063%=      5-min Rain = 0
KLE1 201628Z 15004KT 01/M05 A3024 RMK A01 T00111054  RH  062%=      5-min Rain = 0
KLE1 201629Z 15005KT 01/M05 A3024 RMK A01 T00111053  RH  063%=      5-min Rain = 0
KLE1 201630Z 14005KT 01/M05 A3024 RMK A01 T00121051  RH  063%=      5-min Rain = 0
KLE1 201631Z 14004KT 01/M05 A3024 RMK A01 T00131052  RH  062%=      5-min Rain = 0
KLE1 201632Z 13004KT 01/M05 A3024 RMK A01 T00131053  RH  062%=      5-min Rain = 0
KLE1 201633Z 14003KT 01/M05 A3024 RMK A01 T00121053  RH  062%=      5-min Rain = 0
KLE1 201634Z 13004KT 01/M05 A3024 RMK A01 T00141049  RH  063%=      5-min Rain = 0
KLE1 201635Z 13005KT 02/M05 A3024 RMK A01 T00151050  RH  062%=      5-min Rain = 0
KLE1 201636Z 14004KT 02/M05 A3024 RMK A01 T00151051  RH  062%=      5-min Rain = 0
KLE1 201637Z 14005KT 01/M05 A3024 RMK A01 T00141052  RH  062%=      5-min Rain = 0
KLE1 201638Z 14004KT 01/M05 A3024 RMK A01 T00131052  RH  062%=      5-min Rain = 0
KLE1 201639Z 13005KT 01/M05 A3024 RMK A01 T00141052  RH  062%=      5-min Rain = 0
KLE1 201640Z 13004KT 01/M05 A3024 RMK A01 T00131052  RH  062%=      5-min Rain = 0
KLE1 201641Z 13005KT 01/M05 A3024 RMK A01 T00131051  RH  062%=      5-min Rain = 0
KLE1 201642Z 13006KT 02/M05 A3024 RMK A01 T00151048  RH  063%=      5-min Rain = 0
KLE1 201643Z 15004KT 02/M05 A3024 RMK A01 T00171047  RH  062%=      5-min Rain = 0
KLE1 201644Z 14003KT 02/M05 A3024 RMK A01 T00191046  RH  062%=      5-min Rain = 0
KLE1 201645Z 12004KT 02/M05 A3024 RMK A01 T00201046  RH  062%=      5-min Rain = 0
KLE1 201646Z 13004KT 02/M05 A3024 RMK A01 T00211047  RH  061%=      5-min Rain = 0
KLE1 201647Z 15005KT 02/M05 A3024 RMK A01 T00211046  RH  061%=      5-min Rain = 0
KLE1 201648Z 15003KT 02/M05 A3024 RMK A01 T00221047  RH  061%=      5-min Rain = 0
KLE1 201649Z 13002KT 02/M05 A3024 RMK A01 T00221047  RH  060%=      5-min Rain = 0
KLE1 201650Z 14004KT 03/M04 A3024 RMK A01 T00251043  RH  061%=      5-min Rain = 0
KLE1 201651Z 15006KT 03/M04 A3024 RMK A01 T00281042  RH  060%=      5-min Rain = 0
KLE1 201652Z 15005KT 03/M05 A3024 RMK A01 T00271046  RH  058%=      5-min Rain = 0
KLE1 201653Z 14005KT 03/M05 A3024 RMK A01 T00271046  RH  058%=      5-min Rain = 0
KLE1 201654Z 14005KT 03/M05 A3024 RMK A01 T00281045  RH  059%=      5-min Rain = 0
KLE1 201655Z 14006KT 03/M05 A3024 RMK A01 T00291045  RH  058%=      5-min Rain = 0
KLE1 201656Z 14006KT 03/M05 A3024 RMK A01 T00291045  RH  058%=      5-min Rain = 0
KLE1 201657Z 15006KT 03/M05 A3024 RMK A01 T00291046  RH  058%=      5-min Rain = 0
KLE1 201658Z 15005KT 03/M05 A3024 RMK A01 T00291047  RH  058%=      5-min Rain = 0
KLE1 201659Z 15005KT 03/M05 A3023 RMK A01 T00291045  RH  058%=      5-min Rain = 0
KLE1 201700Z 14005KT 03/M04 A3023 RMK A01 T00311043  RH  058%=      5-min Rain = 0
KLE1 201701Z 14006KT 03/M04 A3023 RMK A01 T00331044  RH  057%=      5-min Rain = 0
KLE1 201702Z 14005KT 03/M05 A3023 RMK A01 T00321045  RH  057%=      5-min Rain = 0
KLE1 201703Z 14006KT 03/M04 A3023 RMK A01 T00331043  RH  057%=      5-min Rain = 0
KLE1 201704Z 14005KT 04/M04 A3023 RMK A01 T00351043  RH  057%=      5-min Rain = 0
KLE1 201705Z 14006KT 04/M04 A3023 RMK A01 T00361042  RH  057%=      5-min Rain = 0
KLE1 201706Z 13006KT 04/M04 A3022 RMK A01 T00381042  RH  056%=      5-min Rain = 0
KLE1 201707Z 13007KT 04/M04 A3022 RMK A01 T00391041  RH  056%=      5-min Rain = 0
KLE1 201708Z 14006KT 04/M04 A3022 RMK A01 T00411041  RH  055%=      5-min Rain = 0
KLE1 201709Z 13006KT 04/M04 A3022 RMK A01 T00411042  RH  055%=      5-min Rain = 0
KLE1 201710Z 15007KT 04/M04 A3022 RMK A01 T00411043  RH  055%=      5-min Rain = 0
KLE1 201711Z 14005KT 04/M04 A3022 RMK A01 T00411043  RH  055%=      5-min Rain = 0
KLE1 201712Z 13006KT 04/M04 A3022 RMK A01 T00411041  RH  055%=      5-min Rain = 0
KLE1 201713Z 14007KT 04/M04 A3022 RMK A01 T00441039  RH  055%=      5-min Rain = 0
KLE1 201714Z 14005KT 05/M04 A3022 RMK A01 T00451041  RH  054%=      5-min Rain = 0
KLE1 201715Z 15006KT 05/M04 A3022 RMK A01 T00451041  RH  054%=      5-min Rain = 0
KLE1 201716Z 16006KT 05/M04 A3022 RMK A01 T00461041  RH  053%=      5-min Rain = 0
KLE1 201717Z 14007KT 05/M04 A3022 RMK A01 T00461041  RH  053%=      5-min Rain = 0
KLE1 201718Z 14008KT 05/M04 A3022 RMK A01 T00471042  RH  053%=      5-min Rain = 0
KLE1 201719Z 15008KT 05/M04 A3022 RMK A01 T00471043  RH  052%=      5-min Rain = 0
KLE1 201720Z 16008KT 05/M04 A3022 RMK A01 T00471042  RH  052%=      5-min Rain = 0
KLE1 201721Z 15008KT 05/M04 A3022 RMK A01 T00491040  RH  052%=      5-min Rain = 0
KLE1 201722Z 15009KT 05/M04 A3022 RMK A01 T00511040  RH  052%=      5-min Rain = 0
KLE1 201723Z 16010KT 05/M04 A3022 RMK A01 T00511042  RH  051%=      5-min Rain = 0
KLE1 201724Z 16008KT 05/M04 A3022 RMK A01 T00531042  RH  050%=      5-min Rain = 0
KLE1 201725Z 15009KT 05/M04 A3022 RMK A01 T00531042  RH  050%=      5-min Rain = 0
KLE1 201726Z 14007KT 05/M04 A3022 RMK A01 T00541042  RH  050%=      5-min Rain = 0
KLE1 201727Z 15009KT 05/M04 A3022 RMK A01 T00541042  RH  050%=      5-min Rain = 0
KLE1 201728Z 16009KT 06/M04 A3022 RMK A01 T00551041  RH  050%=      5-min Rain = 0
KLE1 201729Z 16007KT 06/M04 A3022 RMK A01 T00561041  RH  050%=      5-min Rain = 0
KLE1 201730Z 15008KT 06/M04 A3022 RMK A01 T00581041  RH  049%=      5-min Rain = 0
KLE1 201731Z 16008KT 06/M04 A3021 RMK A01 T00581040  RH  049%=      5-min Rain = 0
KLE1 201732Z 15007KT 06/M04 A3021 RMK A01 T00621037  RH  049%=      5-min Rain = 0
KLE1 201733Z 16008KT 06/M04 A3021 RMK A01 T00641038  RH  048%=      5-min Rain = 0
KLE1 201734Z 16009KT 07/M04 A3021 RMK A01 T00651038  RH  048%=      5-min Rain = 0
KLE1 201735Z 16009KT 07/M04 A3021 RMK A01 T00651040  RH  047%=      5-min Rain = 0
KLE1 201736Z 17009KT 06/M04 A3021 RMK A01 T00641040  RH  047%=      5-min Rain = 0
KLE1 201737Z 17008KT 06/M04 A3021 RMK A01 T00631041  RH  047%=      5-min Rain = 0
KLE1 201738Z 15008KT 06/M04 A3021 RMK A01 T00621040  RH  048%=      5-min Rain = 0
KLE1 201739Z 15009KT 07/M04 A3021 RMK A01 T00651037  RH  048%=      5-min Rain = 0
KLE1 201740Z 15010KT 07/M04 A3021 RMK A01 T00671037  RH  047%=      5-min Rain = 0
KLE1 201741Z 15010KT 07/M04 A3021 RMK A01 T00681038  RH  047%=      5-min Rain = 0
KLE1 201742Z 15006KT 07/M04 A3021 RMK A01 T00671039  RH  047%=      5-min Rain = 0
KLE1 201743Z 15007KT 07/M04 A3021 RMK A01 T00671038  RH  047%=      5-min Rain = 0
KLE1 201744Z 16009KT 07/M04 A3021 RMK A01 T00681038  RH  047%=      5-min Rain = 0
KLE1 201745Z 16010KT 07/M04 A3021 RMK A01 T00671040  RH  046%=      5-min Rain = 0
KLE1 201746Z 17010KT 07/M04 A3021 RMK A01 T00671039  RH  047%=      5-min Rain = 0
KLE1 201747Z 17010KT 07/M04 A3021 RMK A01 T00671038  RH  047%=      5-min Rain = 0
KLE1 201748Z 17009KT 07/M04 A3021 RMK A01 T00671038  RH  047%=      5-min Rain = 0
KLE1 201749Z 16010KT 07/M04 A3021 RMK A01 T00691035  RH  047%=      5-min Rain = 0
KLE1 201750Z 16010KT 07/M04 A3021 RMK A01 T00721036  RH  046%=      5-min Rain = 0
KLE1 201751Z 16008KT 07/M04 A3021 RMK A01 T00721036  RH  046%=      5-min Rain = 0
KLE1 201752Z 16008KT 07/M04 A3021 RMK A01 T00721036  RH  046%=      5-min Rain = 0
KLE1 201753Z 17008KT 07/M04 A3021 RMK A01 T00721037  RH  046%=      5-min Rain = 0
KLE1 201754Z 16010KT 07/M03 A3021 RMK A01 T00731034  RH  046%=      5-min Rain = 0
KLE1 201755Z 16009KT 08/M03 A3021 RMK A01 T00751034  RH  046%=      5-min Rain = 0
KLE1 201756Z 17010KT 08/M04 A302 RMK A01 T00771035  RH  045%=      5-min Rain = 0
KLE1 201757Z 16008KT 08/M04 A302 RMK A01 T00771035  RH  045%=      5-min Rain = 0
KLE1 201758Z 17009KT 08/M04 A302 RMK A01 T00771035  RH  045%=      5-min Rain = 0
KLE1 201759Z 18008KT 08/M03 A302 RMK A01 T00771034  RH  045%=      5-min Rain = 0
KLE1 201800Z 16009KT 08/M03 A302 RMK A01 T00791032  RH  045%=      5-min Rain = 0
KLE1 201801Z 17010KT 08/M03 A302 RMK A01 T00801033  RH  045%=      5-min Rain = 0
KLE1 201802Z 18011KT 08/M03 A302 RMK A01 T00791034  RH  045%=      5-min Rain = 0
KLE1 201803Z 16009KT 08/M03 A302 RMK A01 T00791033  RH  045%=      5-min Rain = 0
KLE1 201804Z 15010KT 08/M03 A302 RMK A01 T00811033  RH  045%=      5-min Rain = 0
KLE1 201805Z 16009KT 08/M03 A302 RMK A01 T00801033  RH  045%=      5-min Rain = 0
KLE1 201806Z 17007KT 08/M03 A302 RMK A01 T00811033  RH  045%=      5-min Rain = 0
KLE1 201807Z 15009KT 08/M03 A302 RMK A01 T00811032  RH  045%=      5-min Rain = 0
KLE1 201808Z 14010KT 08/M03 A302 RMK A01 T00841030  RH  044%=      5-min Rain = 0
KLE1 201809Z 15010KT 09/M03 A3019 RMK A01 T00851031  RH  044%=      5-min Rain = 0
KLE1 201810Z 14008KT 08/M03 A3019 RMK A01 T00841032  RH  044%=      5-min Rain = 0
KLE1 201811Z 14009KT 09/M03 A3019 RMK A01 T00851030  RH  044%=      5-min Rain = 0
KLE1 201812Z 14009KT 09/M03 A3019 RMK A01 T00851031  RH  044%=      5-min Rain = 0
KLE1 201813Z 14010KT 09/M03 A3019 RMK A01 T00851031  RH  044%=      5-min Rain = 0
KLE1 201814Z 14008KT 09/M03 A3019 RMK A01 T00861031  RH  044%=      5-min Rain = 0
KLE1 201815Z 14008KT 09/M03 A3019 RMK A01 T00881030  RH  044%=      5-min Rain = 0
KLE1 201816Z 14009KT 09/M03 A3019 RMK A01 T00881030  RH  043%=      5-min Rain = 0
KLE1 201817Z 14009KT 09/M03 A3019 RMK A01 T00881031  RH  043%=      5-min Rain = 0
KLE1 201818Z 15009KT 09/M03 A3019 RMK A01 T00881030  RH  043%=      5-min Rain = 0
KLE1 201819Z 14008KT 09/M03 A3019 RMK A01 T00891030  RH  043%=      5-min Rain = 0
KLE1 201820Z 14009KT 09/M03 A3019 RMK A01 T00891029  RH  043%=      5-min Rain = 0
KLE1 201821Z 15008KT 09/M03 A3018 RMK A01 T00931026  RH  043%=      5-min Rain = 0
KLE1 201822Z 15009KT 10/M03 A3018 RMK A01 T00951027  RH  042%=      5-min Rain = 0
KLE1 201823Z 15009KT 10/M03 A3018 RMK A01 T00971028  RH  041%=      5-min Rain = 0
KLE1 201824Z 14010KT 10/M03 A3018 RMK A01 T00981028  RH  041%=      5-min Rain = 0
KLE1 201825Z 14008KT 10/M03 A3018 RMK A01 T00971030  RH  041%=      5-min Rain = 0
KLE1 201826Z 15010KT 10/M03 A3018 RMK A01 T00951029  RH  041%=      5-min Rain = 0
KLE1 201827Z 15009KT 10/M03 A3018 RMK A01 T00961029  RH  041%=      5-min Rain = 0
KLE1 201828Z 14009KT 10/M03 A3018 RMK A01 T00971029  RH  041%=      5-min Rain = 0
KLE1 201829Z 13008KT 10/M03 A3017 RMK A01 T00961030  RH  041%=      5-min Rain = 0
KLE1 201830Z 15010KT 10/M03 A3017 RMK A01 T00981027  RH  041%=      5-min Rain = 0
KLE1 201831Z 15009KT 10/M03 A3017 RMK A01 T00981031  RH  040%=      5-min Rain = 0
KLE1 201832Z 13008KT 10/M03 A3017 RMK A01 T00961031  RH  041%=      5-min Rain = 0
KLE1 201833Z 14008KT 10/M03 A3017 RMK A01 T00981028  RH  041%=      5-min Rain = 0
KLE1 201834Z 14008KT 10/M03 A3017 RMK A01 T00991030  RH  040%=      5-min Rain = 0
KLE1 201835Z 12008KT 10/M03 A3017 RMK A01 T00961032  RH  040%=      5-min Rain = 0
KLE1 201836Z 13006KT 10/M03 A3017 RMK A01 T00961030  RH  041%=      5-min Rain = 0
KLE1 201837Z 13008KT 10/M03 A3017 RMK A01 T00971029  RH  041%=      5-min Rain = 0
KLE1 201838Z 12008KT 10/M03 A3017 RMK A01 T01011026  RH  041%=      5-min Rain = 0
KLE1 201839Z 14008KT 10/M03 A3017 RMK A01 T01021027  RH  040%=      5-min Rain = 0
KLE1 201840Z 14007KT 10/M03 A3017 RMK A01 T01011029  RH  040%=      5-min Rain = 0
KLE1 201841Z 11009KT 10/M03 A3017 RMK A01 T01001028  RH  040%=      5-min Rain = 0
KLE1 201842Z 12010KT 10/M03 A3017 RMK A01 T00991029  RH  040%=      5-min Rain = 0
KLE1 201843Z 11007KT 10/M03 A3017 RMK A01 T00991029  RH  041%=      5-min Rain = 0
KLE1 201844Z 12007KT 10/M03 A3017 RMK A01 T00991029  RH  041%=      5-min Rain = 0
KLE1 201845Z 11008KT 10/M03 A3017 RMK A01 T01001027  RH  041%=      5-min Rain = 0
KLE1 201846Z 13007KT 10/M03 A3017 RMK A01 T01011027  RH  040%=      5-min Rain = 0
KLE1 201847Z 11005KT 10/M03 A3017 RMK A01 T01021028  RH  040%=      5-min Rain = 0
KLE1 201848Z 13007KT 10/M03 A3017 RMK A01 T01041025  RH  040%=      5-min Rain = 0
KLE1 201849Z 12007KT 11/M03 A3016 RMK A01 T01071026  RH  039%=      5-min Rain = 0
KLE1 201850Z 11008KT 11/M03 A3016 RMK A01 T01061028  RH  039%=      5-min Rain = 0
KLE1 201851Z 11008KT 10/M03 A3016 RMK A01 T01041028  RH  039%=      5-min Rain = 0
KLE1 201852Z 11006KT 10/M03 A3016 RMK A01 T01041028  RH  040%=      5-min Rain = 0
KLE1 201853Z 11007KT 11/M03 A3016 RMK A01 T01051027  RH  039%=      5-min Rain = 0
KLE1 201854Z 11006KT 11/M03 A3016 RMK A01 T01061025  RH  040%=      5-min Rain = 0
KLE1 201855Z 10006KT 11/M02 A3016 RMK A01 T01111023  RH  039%=      5-min Rain = 0
KLE1 201856Z 12010KT 12/M02 A3016 RMK A01 T01151022  RH  038%=      5-min Rain = 0
KLE1 201857Z 11008KT 11/M03 A3016 RMK A01 T01141026  RH  037%=      5-min Rain = 0
KLE1 201858Z 10006KT 11/M03 A3016 RMK A01 T01141026  RH  038%=      5-min Rain = 0
KLE1 201859Z 11007KT 11/M03 A3015 RMK A01 T01141025  RH  038%=      5-min Rain = 0
KLE1 201900Z 09008KT 12/M03 A3015 RMK A01 T01151025  RH  037%=      5-min Rain = 0
KLE1 201901Z 08008KT 11/M03 A3015 RMK A01 T01141026  RH  038%=      5-min Rain = 0
KLE1 201902Z 08009KT 11/M03 A3015 RMK A01 T01141025  RH  038%=      5-min Rain = 0
KLE1 201903Z 08006KT 11/M03 A3015 RMK A01 T01141026  RH  037%=      5-min Rain = 0
KLE1 201904Z 09008KT 12/M02 A3015 RMK A01 T01171021  RH  038%=      5-min Rain = 0
KLE1 201905Z 09009KT 12/M02 A3015 RMK A01 T01201023  RH  037%=      5-min Rain = 0
KLE1 201906Z 08009KT 12/M03 A3015 RMK A01 T01201026  RH  036%=      5-min Rain = 0
KLE1 201907Z 09008KT 12/M03 A3015 RMK A01 T01191025  RH  037%=      5-min Rain = 0
KLE1 201908Z 08009KT 12/M03 A3015 RMK A01 T01191026  RH  036%=      5-min Rain = 0
KLE1 201909Z 08007KT 12/M03 A3015 RMK A01 T01181027  RH  036%=      5-min Rain = 0
KLE1 201910Z 08007KT 12/M03 A3015 RMK A01 T01151027  RH  037%=      5-min Rain = 0
KLE1 201911Z 07007KT 11/M03 A3015 RMK A01 T01141027  RH  037%=      5-min Rain = 0
KLE1 201912Z 08008KT 11/M03 A3014 RMK A01 T01131027  RH  037%=      5-min Rain = 0
KLE1 201913Z 11007KT 11/M03 A3014 RMK A01 T01141025  RH  038%=      5-min Rain = 0
KLE1 201914Z 10009KT 12/M02 A3014 RMK A01 T01151024  RH  038%=      5-min Rain = 0
KLE1 201915Z 09009KT 12/M03 A3014 RMK A01 T01151025  RH  037%=      5-min Rain = 0
KLE1 201916Z 08009KT 12/M03 A3014 RMK A01 T01151025  RH  038%=      5-min Rain = 0
KLE1 201917Z 09008KT 12/M03 A3014 RMK A01 T01151025  RH  038%=      5-min Rain = 0
KLE1 201918Z 08008KT 12/M03 A3014 RMK A01 T01151025  RH  037%=      5-min Rain = 0
KLE1 201919Z 09010KT 12/M03 A3014 RMK A01 T01151025  RH  038%=      5-min Rain = 0
KLE1 201920Z 09009KT 12/M03 A3014 RMK A01 T01151025  RH  037%=      5-min Rain = 0
KLE1 201921Z 07009KT 12/M02 A3014 RMK A01 T01161024  RH  038%=      5-min Rain = 0
KLE1 201922Z 07009KT 12/M02 A3014 RMK A01 T01181023  RH  037%=      5-min Rain = 0
KLE1 201923Z 08011KT 12/M02 A3013 RMK A01 T01211021  RH  037%=      5-min Rain = 0
KLE1 201924Z 08010KT 12/M02 A3013 RMK A01 T01211024  RH  036%=      5-min Rain = 0
KLE1 201925Z 07012KT 12/M03 A3013 RMK A01 T01181026  RH  036%=      5-min Rain = 0
KLE1 201926Z 06011KT 12/M03 A3013 RMK A01 T01181025  RH  037%=      5-min Rain = 0
KLE1 201927Z 07009KT 12/M02 A3013 RMK A01 T01211020  RH  037%=      5-min Rain = 0
KLE1 201928Z 07010KT 13/M02 A3013 RMK A01 T01271019  RH  036%=      5-min Rain = 0
KLE1 201929Z 07009KT 13/M02 A3013 RMK A01 T01281022  RH  035%=      5-min Rain = 0
KLE1 201930Z 07010KT 13/M02 A3013 RMK A01 T01261024  RH  035%=      5-min Rain = 0
KLE1 201931Z 07009KT 13/M02 A3013 RMK A01 T01251023  RH  035%=      5-min Rain = 0
KLE1 201932Z 07009KT 13/M02 A3013 RMK A01 T01271023  RH  035%=      5-min Rain = 0
KLE1 201933Z 06008KT 13/M02 A3012 RMK A01 T01271023  RH  035%=      5-min Rain = 0
KLE1 201934Z 06010KT 13/M02 A3012 RMK A01 T01261024  RH  035%=      5-min Rain = 0
KLE1 201935Z 10010KT 13/M02 A3012 RMK A01 T01261024  RH  035%=      5-min Rain = 0
KLE1 201936Z 08009KT 13/M02 A3012 RMK A01 T01271023  RH  035%=      5-min Rain = 0
KLE1 201937Z 07010KT 13/M02 A3012 RMK A01 T01291022  RH  035%=      5-min Rain = 0
KLE1 201938Z 07012KT 13/M02 A3012 RMK A01 T01331019  RH  035%=      5-min Rain = 0
KLE1 201939Z 07008KT 14/M02 A3012 RMK A01 T01361021  RH  034%=      5-min Rain = 0
KLE1 201940Z 06010KT 13/M02 A3012 RMK A01 T01341023  RH  034%=      5-min Rain = 0
KLE1 201941Z 07009KT 13/M02 A3012 RMK A01 T01321023  RH  034%=      5-min Rain = 0
KLE1 201942Z 06009KT 13/M02 A3012 RMK A01 T01331022  RH  034%=      5-min Rain = 0
KLE1 201943Z 06007KT 13/M02 A3012 RMK A01 T01341021  RH  034%=      5-min Rain = 0
KLE1 201944Z 07005KT 13/M02 A3012 RMK A01 T01341021  RH  034%=      5-min Rain = 0
KLE1 201945Z 08007KT 14/M02 A3011 RMK A01 T01361021  RH  034%=      5-min Rain = 0
KLE1 201946Z 08006KT 14/M02 A3011 RMK A01 T01401017  RH  034%=      5-min Rain = 0
KLE1 201947Z 06005KT 14/M02 A3011 RMK A01 T01421019  RH  033%=      5-min Rain = 0
KLE1 201948Z 05003KT 14/M02 A3011 RMK A01 T01411024  RH  032%=      5-min Rain = 0
KLE1 201949Z 09007KT 14/M02 A3011 RMK A01 T01391022  RH  033%=      5-min Rain = 0
KLE1 201950Z 10005KT 14/M02 A3011 RMK A01 T01401022  RH  033%=      5-min Rain = 0
KLE1 201951Z 10006KT 14/M02 A3011 RMK A01 T01411022  RH  033%=      5-min Rain = 0
KLE1 201952Z 09004KT 14/M02 A3011 RMK A01 T01421020  RH  033%=      5-min Rain = 0
KLE1 201953Z 07004KT 14/M02 A3011 RMK A01 T01421021  RH  032%=      5-min Rain = 0
KLE1 201954Z 05005KT 14/M02 A3011 RMK A01 T01431020  RH  032%=      5-min Rain = 0
KLE1 201955Z 06006KT 15/M02 A301 RMK A01 T01451019  RH  032%=      5-min Rain = 0
KLE1 201956Z 05005KT 15/M02 A301 RMK A01 T01461019  RH  032%=      5-min Rain = 0
KLE1 201957Z 06005KT 15/M02 A301 RMK A01 T01481018  RH  032%=      5-min Rain = 0
KLE1 201958Z 14008KT 15/M02 A301 RMK A01 T01491019  RH  031%=      5-min Rain = 0
KLE1 201959Z 15008KT 15/M02 A301 RMK A01 T01501020  RH  031%=      5-min Rain = 0
KLE1 202000Z 16007KT 15/M02 A301 RMK A01 T01521020  RH  031%=      5-min Rain = 0
KLE1 202001Z 17009KT 15/M02 A301 RMK A01 T01541019  RH  030%=      5-min Rain = 0
KLE1 202002Z 19006KT 16/M02 A301 RMK A01 T01561021  RH  029%=      5-min Rain = 0
KLE1 202003Z 19005KT 16/M02 A301 RMK A01 T01561022  RH  029%=      5-min Rain = 0
KLE1 202004Z 17008KT 16/M02 A301 RMK A01 T01561022  RH  029%=      5-min Rain = 0
KLE1 202005Z 18012KT 16/M02 A301 RMK A01 T01581023  RH  029%=      5-min Rain = 0
KLE1 202006Z 18009KT 16/M03 A301 RMK A01 T01581026  RH  028%=      5-min Rain = 0
KLE1 202007Z 16007KT 16/M03 A301 RMK A01 T01571026  RH  028%=      5-min Rain = 0
KLE1 202008Z 17006KT 16/M03 A301 RMK A01 T01581025  RH  028%=      5-min Rain = 0
KLE1 202009Z 17007KT 16/M02 A301 RMK A01 T01601023  RH  028%=      5-min Rain = 0
KLE1 202010Z 16009KT 16/M02 A301 RMK A01 T01611023  RH  028%=      5-min Rain = 0
KLE1 202011Z 18009KT 16/M02 A301 RMK A01 T01631023  RH  028%=      5-min Rain = 0
KLE1 202012Z 19011KT 17/M02 A301 RMK A01 T01651024  RH  027%=      5-min Rain = 0
KLE1 202013Z 20010KT 16/M03 A301 RMK A01 T01631027  RH  027%=      5-min Rain = 0
KLE1 202014Z 19009KT 16/M03 A301 RMK A01 T01591028  RH  027%=      5-min Rain = 0
KLE1 202015Z 20008KT 16/M03 A301 RMK A01 T01581027  RH  028%=      5-min Rain = 0
KLE1 202016Z 21005KT 16/M03 A301 RMK A01 T01581027  RH  028%=      5-min Rain = 0
KLE1 202017Z 22006KT 16/M03 A3009 RMK A01 T01581027  RH  028%=      5-min Rain = 0
KLE1 202018Z 20005KT 16/M03 A3009 RMK A01 T01601026  RH  028%=      5-min Rain = 0
KLE1 202019Z 19007KT 16/M03 A3009 RMK A01 T01611026  RH  028%=      5-min Rain = 0
KLE1 202020Z 18009KT 16/M02 A3009 RMK A01 T01631024  RH  028%=      5-min Rain = 0
KLE1 202021Z 18007KT 16/M03 A3009 RMK A01 T01641027  RH  027%=      5-min Rain = 0
KLE1 202022Z 18006KT 16/M03 A3009 RMK A01 T01611028  RH  027%=      5-min Rain = 0
KLE1 202023Z 20009G14KT 16/M03 A3009 RMK A01 T01611027  RH  027%=      5-min Rain = 0
KLE1 202024Z 17010KT 16/M03 A3009 RMK A01 T01611026  RH  028%=      5-min Rain = 0
KLE1 202025Z 17008KT 16/M03 A3009 RMK A01 T01631026  RH  027%=      5-min Rain = 0
KLE1 202026Z 16007KT 16/M03 A3009 RMK A01 T01611028  RH  027%=      5-min Rain = 0
KLE1 202027Z 16006KT 16/M03 A3009 RMK A01 T01601027  RH  028%=      5-min Rain = 0
KLE1 202028Z 15007KT 16/M02 A3009 RMK A01 T01621024  RH  028%=      5-min Rain = 0
KLE1 202029Z 16005KT 16/M03 A3009 RMK A01 T01631025  RH  027%=      5-min Rain = 0
KLE1 202030Z 17007KT 17/M02 A3009 RMK A01 T01651023  RH  028%=      5-min Rain = 0
KLE1 202031Z 19009KT 17/M03 A3008 RMK A01 T01661025  RH  027%=      5-min Rain = 0
KLE1 202032Z 18011KT 17/M03 A3008 RMK A01 T01651026  RH  027%=      5-min Rain = 0
KLE1 202033Z 18012KT 17/M03 A3008 RMK A01 T01651026  RH  027%=      5-min Rain = 0
KLE1 202034Z 19011KT 17/M03 A3008 RMK A01 T01651027  RH  027%=      5-min Rain = 0
KLE1 202035Z 18009KT 16/M03 A3008 RMK A01 T01641028  RH  027%=      5-min Rain = 0
KLE1 202036Z 18009KT 16/M03 A3009 RMK A01 T01631027  RH  027%=      5-min Rain = 0
KLE1 202037Z 18007KT 16/M03 A3009 RMK A01 T01641026  RH  027%=      5-min Rain = 0
KLE1 202038Z 18010KT 17/M03 A3009 RMK A01 T01661025  RH  027%=      5-min Rain = 0
KLE1 202039Z 18009KT 17/M03 A3009 RMK A01 T01691025  RH  026%=      5-min Rain = 0
KLE1 202040Z 18008KT 17/M03 A3008 RMK A01 T01701026  RH  026%=      5-min Rain = 0
KLE1 202041Z 17008KT 17/M03 A3008 RMK A01 T01681026  RH  026%=      5-min Rain = 0
KLE1 202042Z 17008KT 17/M03 A3008 RMK A01 T01671027  RH  026%=      5-min Rain = 0
KLE1 202043Z 15006KT 17/M03 A3008 RMK A01 T01661028  RH  026%=      5-min Rain = 0
KLE1 202044Z 18006KT 16/M03 A3008 RMK A01 T01641027  RH  027%=      5-min Rain = 0
KLE1 202045Z 18010KT 17/M03 A3008 RMK A01 T01661025  RH  027%=      5-min Rain = 0
KLE1 202046Z 16009G14KT 17/M03 A3008 RMK A01 T01671026  RH  027%=      5-min Rain = 0
KLE1 202047Z 17010KT 17/M03 A3008 RMK A01 T01671027  RH  026%=      5-min Rain = 0
KLE1 202048Z 18008KT 17/M03 A3008 RMK A01 T01651029  RH  026%=      5-min Rain = 0
KLE1 202049Z 19006KT 16/M03 A3008 RMK A01 T01641029  RH  026%=      5-min Rain = 0
KLE1 202050Z 19006KT 16/M03 A3008 RMK A01 T01631028  RH  027%=      5-min Rain = 0
KLE1 202051Z 18007KT 16/M03 A3008 RMK A01 T01631028  RH  027%=      5-min Rain = 0
KLE1 202052Z 18008KT 16/M03 A3007 RMK A01 T01641027  RH  027%=      5-min Rain = 0
KLE1 202053Z 17007KT 16/M03 A3007 RMK A01 T01641028  RH  027%=      5-min Rain = 0
KLE1 202054Z 19009KT 16/M03 A3007 RMK A01 T01641027  RH  027%=      5-min Rain = 0
KLE1 202055Z 19011KT 16/M03 A3007 RMK A01 T01631028  RH  027%=      5-min Rain = 0
KLE1 202056Z 17007KT 16/M03 A3007 RMK A01 T01621029  RH  027%=      5-min Rain = 0
KLE1 202057Z 18007KT 16/M03 A3007 RMK A01 T01611029  RH  027%=      5-min Rain = 0
KLE1 202058Z 19009KT 16/M03 A3007 RMK A01 T01631027  RH  027%=      5-min Rain = 0
KLE1 202059Z 19009KT 16/M03 A3007 RMK A01 T01641027  RH  027%=      5-min Rain = 0
KLE1 202100Z 18008G13KT 17/M03 A3007 RMK A01 T01671025  RH  027%=      5-min Rain = 0
KLE1 202101Z 17010KT 17/M03 A3007 RMK A01 T01701026  RH  026%=      5-min Rain = 0
KLE1 202102Z 16009KT 17/M03 A3007 RMK A01 T01681028  RH  026%=      5-min Rain = 0
KLE1 202103Z 17008KT 17/M03 A3007 RMK A01 T01671029  RH  026%=      5-min Rain = 0
KLE1 202104Z 17008KT 17/M03 A3007 RMK A01 T01671027  RH  026%=      5-min Rain = 0
KLE1 202105Z 17007KT 17/M03 A3007 RMK A01 T01691026  RH  026%=      5-min Rain = 0
KLE1 202106Z 17007KT 17/M03 A3007 RMK A01 T01691027  RH  026%=      5-min Rain = 0
KLE1 202107Z 18006KT 17/M03 A3007 RMK A01 T01691027  RH  026%=      5-min Rain = 0
KLE1 202108Z 18007KT 17/M03 A3006 RMK A01 T01701026  RH  026%=      5-min Rain = 0
KLE1 202109Z 17006KT 17/M03 A3006 RMK A01 T01711026  RH  026%=      5-min Rain = 0
KLE1 202110Z 15007KT 17/M02 A3006 RMK A01 T01731024  RH  026%=      5-min Rain = 0
KLE1 202111Z 16005KT 17/M03 A3006 RMK A01 T01731026  RH  026%=      5-min Rain = 0
KLE1 202112Z 17008KT 17/M03 A3006 RMK A01 T01721026  RH  026%=      5-min Rain = 0
KLE1 202113Z 18008KT 17/M03 A3006 RMK A01 T01731025  RH  026%=      5-min Rain = 0
KLE1 202114Z 17010KT 17/M03 A3006 RMK A01 T01741026  RH  025%=      5-min Rain = 0
KLE1 202115Z 17007KT 17/M03 A3006 RMK A01 T01741025  RH  026%=      5-min Rain = 0
KLE1 202116Z 16007KT 18/M03 A3006 RMK A01 T01751025  RH  025%=      5-min Rain = 0
KLE1 202117Z 15012KT 18/M02 A3006 RMK A01 T01761024  RH  026%=      5-min Rain = 0
KLE1 202118Z 16012KT 18/M03 A3006 RMK A01 T01751025  RH  025%=      5-min Rain = 0
KLE1 202119Z 16007KT 17/M03 A3006 RMK A01 T01721026  RH  026%=      5-min Rain = 0
KLE1 202120Z 15007KT 17/M03 A3006 RMK A01 T01701027  RH  026%=      5-min Rain = 0
KLE1 202121Z 14005KT 17/M03 A3006 RMK A01 T01691028  RH  026%=      5-min Rain = 0
KLE1 202122Z 13008KT 17/M03 A3006 RMK A01 T01681026  RH  026%=      5-min Rain = 0
KLE1 202123Z 14008KT 17/M02 A3006 RMK A01 T01691024  RH  027%=      5-min Rain = 0
KLE1 202124Z 13008KT 17/M02 A3006 RMK A01 T01701023  RH  027%=      5-min Rain = 0
KLE1 202125Z 13008KT 17/M02 A3006 RMK A01 T01701022  RH  027%=      5-min Rain = 0
KLE1 202126Z 15007KT 17/M02 A3006 RMK A01 T01701024  RH  027%=      5-min Rain = 0
KLE1 202127Z 16005KT 17/M03 A3006 RMK A01 T01681025  RH  027%=      5-min Rain = 0
KLE1 202128Z 17009KT 17/M02 A3006 RMK A01 T01681023  RH  027%=      5-min Rain = 0
KLE1 202129Z 17008KT 17/M02 A3006 RMK A01 T01681024  RH  027%=      5-min Rain = 0
KLE1 202130Z 16009KT 17/M02 A3006 RMK A01 T01681023  RH  027%=      5-min Rain = 0
KLE1 202131Z 16009KT 17/M02 A3006 RMK A01 T01681024  RH  027%=      5-min Rain = 0
KLE1 202132Z 15008KT 17/M02 A3005 RMK A01 T01671024  RH  027%=      5-min Rain = 0
KLE1 202133Z 14008KT 17/M02 A3005 RMK A01 T01661024  RH  027%=      5-min Rain = 0
KLE1 202134Z 15009KT 16/M03 A3005 RMK A01 T01641025  RH  027%=      5-min Rain = 0
KLE1 202135Z 14010KT 16/M03 A3005 RMK A01 T01621025  RH  028%=      5-min Rain = 0
KLE1 202136Z 14008KT 16/M02 A3005 RMK A01 T01621023  RH  028%=      5-min Rain = 0
KLE1 202137Z 14008KT 16/M02 A3005 RMK A01 T01621022  RH  028%=      5-min Rain = 0
KLE1 202138Z 14009KT 16/M02 A3005 RMK A01 T01621022  RH  028%=      5-min Rain = 0
KLE1 202139Z 13007KT 16/M02 A3005 RMK A01 T01611023  RH  028%=      5-min Rain = 0
KLE1 202140Z 11007KT 16/M02 A3005 RMK A01 T01611022  RH  028%=      5-min Rain = 0
KLE1 202141Z 11006KT 16/M02 A3005 RMK A01 T01611022  RH  028%=      5-min Rain = 0
KLE1 202142Z 15006G13KT 16/M02 A3005 RMK A01 T01611022  RH  028%=      5-min Rain = 0
KLE1 202143Z 18007KT 16/M02 A3005 RMK A01 T01611022  RH  028%=      5-min Rain = 0
KLE1 202144Z 17007KT 16/M03 A3005 RMK A01 T01631025  RH  027%=      5-min Rain = 0
KLE1 202145Z 16011KT 17/M03 A3005 RMK A01 T01651026  RH  027%=      5-min Rain = 0
KLE1 202146Z 16010KT 17/M03 A3005 RMK A01 T01671027  RH  026%=      5-min Rain = 0
KLE1 202147Z 17010KT 17/M03 A3005 RMK A01 T01681025  RH  026%=      5-min Rain = 0
KLE1 202148Z 17009KT 17/M03 A3005 RMK A01 T01691026  RH  026%=      5-min Rain = 0
KLE1 202149Z 18010KT 17/M03 A3005 RMK A01 T01691026  RH  026%=      5-min Rain = 0
KLE1 202150Z 18009KT 17/M03 A3005 RMK A01 T01691027  RH  026%=      5-min Rain = 0
KLE1 202151Z 18009KT 17/M03 A3005 RMK A01 T01691028  RH  026%=      5-min Rain = 0
KLE1 202152Z 18008KT 17/M03 A3005 RMK A01 T01681027  RH  026%=      5-min Rain = 0
KLE1 202153Z 18010KT 17/M03 A3005 RMK A01 T01691026  RH  026%=      5-min Rain = 0
KLE1 202154Z 18010KT 17/M03 A3005 RMK A01 T01701026  RH  026%=      5-min Rain = 0
KLE1 202155Z 18009KT 17/M03 A3005 RMK A01 T01701026  RH  026%=      5-min Rain = 0
KLE1 202156Z 18009KT 17/M03 A3005 RMK A01 T01711026  RH  026%=      5-min Rain = 0
KLE1 202157Z 19009KT 17/M03 A3005 RMK A01 T01711025  RH  026%=      5-min Rain = 0
KLE1 202158Z 18008KT 17/M03 A3005 RMK A01 T01721025  RH  026%=      5-min Rain = 0
KLE1 202159Z 16008KT 17/M02 A3005 RMK A01 T01721024  RH  026%=      5-min Rain = 0
KLE1 202200Z 15009KT 17/M02 A3005 RMK A01 T01741023  RH  026%=      5-min Rain = 0
KLE1 202201Z 15009KT 18/M02 A3005 RMK A01 T01751023  RH  026%=      5-min Rain = 0
KLE1 202202Z 15009KT 18/M03 A3005 RMK A01 T01751025  RH  026%=      5-min Rain = 0
KLE1 202203Z 15009KT 17/M03 A3005 RMK A01 T01731026  RH  026%=      5-min Rain = 0
KLE1 202204Z 16008KT 17/M03 A3005 RMK A01 T01711027  RH  026%=      5-min Rain = 0
KLE1 202205Z 16010KT 17/M03 A3005 RMK A01 T01701026  RH  026%=      5-min Rain = 0
KLE1 202206Z 16009KT 17/M03 A3005 RMK A01 T01711025  RH  026%=      5-min Rain = 0
KLE1 202207Z 16007KT 17/M03 A3005 RMK A01 T01721025  RH  026%=      5-min Rain = 0
KLE1 202208Z 16007KT 17/M02 A3005 RMK A01 T01741023  RH  026%=      5-min Rain = 0
KLE1 202209Z 15008KT 18/M02 A3005 RMK A01 T01751024  RH  026%=      5-min Rain = 0
KLE1 202210Z 17006KT 18/M02 A3005 RMK A01 T01751024  RH  026%=      5-min Rain = 0
KLE1 202211Z 15008KT 18/M02 A3005 RMK A01 T01751024  RH  026%=      5-min Rain = 0
KLE1 202212Z 16009KT 18/M02 A3005 RMK A01 T01751024  RH  026%=      5-min Rain = 0
KLE1 202213Z 16009KT 17/M02 A3005 RMK A01 T01731024  RH  026%=      5-min Rain = 0
KLE1 202214Z 15009KT 17/M02 A3005 RMK A01 T01731021  RH  026%=      5-min Rain = 0
KLE1 202215Z 16008KT 17/M02 A3005 RMK A01 T01731021  RH  026%=      5-min Rain = 0
KLE1 202216Z 17008KT 17/M02 A3005 RMK A01 T01721022  RH  027%=      5-min Rain = 0
KLE1 202217Z 17007KT 17/M02 A3005 RMK A01 T01721023  RH  026%=      5-min Rain = 0
KLE1 202218Z 17006KT 17/M03 A3005 RMK A01 T01711025  RH  026%=      5-min Rain = 0
KLE1 202219Z 17008KT 17/M03 A3005 RMK A01 T01701025  RH  026%=      5-min Rain = 0
KLE1 202220Z 16007KT 17/M02 A3005 RMK A01 T01701024  RH  026%=      5-min Rain = 0
KLE1 202221Z 14007KT 17/M02 A3005 RMK A01 T01701021  RH  027%=      5-min Rain = 0
KLE1 202222Z 17009KT 17/M02 A3005 RMK A01 T01701018  RH  028%=      5-min Rain = 0
KLE1 202223Z 18008KT 17/M02 A3005 RMK A01 T01681023  RH  027%=      5-min Rain = 0
KLE1 202224Z 17007KT 17/M02 A3005 RMK A01 T01681024  RH  027%=      5-min Rain = 0
KLE1 202225Z 17007KT 17/M02 A3005 RMK A01 T01671024  RH  027%=      5-min Rain = 0
KLE1 202226Z 16008KT 17/M03 A3005 RMK A01 T01661025  RH  027%=      5-min Rain = 0
KLE1 202227Z 16010KT 17/M02 A3005 RMK A01 T01651024  RH  027%=      5-min Rain = 0
KLE1 202228Z 16009KT 16/M02 A3005 RMK A01 T01641023  RH  028%=      5-min Rain = 0
KLE1 202229Z 16010KT 16/M02 A3005 RMK A01 T01641022  RH  028%=      5-min Rain = 0
KLE1 202230Z 16010KT 16/M02 A3005 RMK A01 T01641021  RH  028%=      5-min Rain = 0
KLE1 202231Z 16010KT 16/M02 A3005 RMK A01 T01641021  RH  028%=      5-min Rain = 0
KLE1 202232Z 16009KT 16/M02 A3005 RMK A01 T01641022  RH  028%=      5-min Rain = 0
KLE1 202233Z 16008KT 16/M02 A3005 RMK A01 T01641020  RH  028%=      5-min Rain = 0
KLE1 202234Z 16010KT 17/M02 A3005 RMK A01 T01651018  RH  028%=      5-min Rain = 0
KLE1 202235Z 16009KT 17/M02 A3004 RMK A01 T01651019  RH  028%=      5-min Rain = 0
KLE1 202236Z 15008KT 17/M02 A3004 RMK A01 T01651018  RH  029%=      5-min Rain = 0
KLE1 202237Z 15010KT 16/M02 A3004 RMK A01 T01641018  RH  029%=      5-min Rain = 0
KLE1 202238Z 16010KT 16/M02 A3004 RMK A01 T01641017  RH  029%=      5-min Rain = 0
KLE1 202239Z 16009KT 16/M02 A3004 RMK A01 T01631017  RH  029%=      5-min Rain = 0
KLE1 202240Z 15008KT 16/M02 A3004 RMK A01 T01611018  RH  029%=      5-min Rain = 0
KLE1 202241Z 15010KT 16/M02 A3004 RMK A01 T01601018  RH  029%=      5-min Rain = 0
KLE1 202242Z 15009KT 16/M02 A3004 RMK A01 T01591019  RH  030%=      5-min Rain = 0
KLE1 202243Z 15010KT 16/M02 A3004 RMK A01 T01571016  RH  030%=      5-min Rain = 0
KLE1 202244Z 16012KT 16/M02 A3005 RMK A01 T01561015  RH  031%=      5-min Rain = 0
KLE1 202245Z 15012KT 16/M02 A3005 RMK A01 T01551017  RH  031%=      5-min Rain = 0
KLE1 202246Z 15012KT 15/M02 A3005 RMK A01 T01541018  RH  030%=      5-min Rain = 0
KLE1 202247Z 15012KT 15/M02 A3005 RMK A01 T01541019  RH  031%=      5-min Rain = 0
KLE1 202248Z 15010KT 15/M02 A3005 RMK A01 T01531018  RH  031%=      5-min Rain = 0
KLE1 202249Z 15010KT 15/M02 A3005 RMK A01 T01531017  RH  031%=      5-min Rain = 0
KLE1 202250Z 14010KT 15/M02 A3005 RMK A01 T01521015  RH  032%=      5-min Rain = 0
KLE1 202251Z 15010KT 15/M01 A3005 RMK A01 T01521014  RH  032%=      5-min Rain = 0
KLE1 202252Z 14010KT 15/M02 A3005 RMK A01 T01521015  RH  032%=      5-min Rain = 0
KLE1 202253Z 14012KT 15/M02 A3005 RMK A01 T01521016  RH  032%=      5-min Rain = 0
KLE1 202254Z 14011KT 15/M02 A3005 RMK A01 T01521016  RH  031%=      5-min Rain = 0
KLE1 202255Z 15011KT 15/M02 A3005 RMK A01 T01521015  RH  032%=      5-min Rain = 0
KLE1 202256Z 14011KT 15/M02 A3005 RMK A01 T01511015  RH  032%=      5-min Rain = 0
KLE1 202257Z 14011KT 15/M02 A3005 RMK A01 T01501016  RH  032%=      5-min Rain = 0
KLE1 202258Z 14011KT 15/M02 A3005 RMK A01 T01491017  RH  032%=      5-min Rain = 0
KLE1 202259Z 14012KT 15/M02 A3005 RMK A01 T01491017  RH  032%=      5-min Rain = 0
KLE1 202300Z 15012KT 15/M02 A3004 RMK A01 T01481017  RH  032%=      5-min Rain = 0
KLE1 202301Z 14012KT 15/M02 A3004 RMK A01 T01471017  RH  032%=      5-min Rain = 0
KLE1 202302Z 14014KT 15/M02 A3004 RMK A01 T01471018  RH  032%=      5-min Rain = 0
KLE1 202303Z 14013KT 15/M02 A3004 RMK A01 T01471019  RH  032%=      5-min Rain = 0
KLE1 202304Z 14012KT 15/M02 A3004 RMK A01 T01471020  RH  032%=      5-min Rain = 0
KLE1 202305Z 14013KT 15/M02 A3004 RMK A01 T01461020  RH  032%=      5-min Rain = 0
KLE1 202306Z 14013KT 15/M02 A3004 RMK A01 T01461020  RH  032%=      5-min Rain = 0
KLE1 202307Z 14013KT 15/M02 A3004 RMK A01 T01461020  RH  032%=      5-min Rain = 0
KLE1 202308Z 14013KT 15/M02 A3004 RMK A01 T01461020  RH  032%=      5-min Rain = 0
KLE1 202309Z 14011KT 15/M02 A3004 RMK A01 T01461020  RH  032%=      5-min Rain = 0
KLE1 202310Z 14012KT 15/M02 A3004 RMK A01 T01451019  RH  032%=      5-min Rain = 0
KLE1 202311Z 14011KT 15/M02 A3004 RMK A01 T01451020  RH  032%=      5-min Rain = 0
KLE1 202312Z 14012KT 14/M02 A3004 RMK A01 T01441020  RH  032%=      5-min Rain = 0
KLE1 202313Z 13011KT 14/M02 A3004 RMK A01 T01431020  RH  032%=      5-min Rain = 0
KLE1 202314Z 13010KT 14/M02 A3004 RMK A01 T01421020  RH  033%=      5-min Rain = 0
KLE1 202315Z 13012KT 14/M02 A3004 RMK A01 T01401020  RH  033%=      5-min Rain = 0
KLE1 202316Z 13011KT 14/M02 A3004 RMK A01 T01391021  RH  033%=      5-min Rain = 0
KLE1 202317Z 13011KT 14/M02 A3004 RMK A01 T01381021  RH  033%=      5-min Rain = 0
KLE1 202318Z 13011KT 14/M02 A3004 RMK A01 T01381021  RH  033%=      5-min Rain = 0
KLE1 202319Z 13012KT 14/M02 A3004 RMK A01 T01371021  RH  034%=      5-min Rain = 0
KLE1 202320Z 13011KT 14/M02 A3004 RMK A01 T01371020  RH  034%=      5-min Rain = 0
KLE1 202321Z 13012KT 14/M02 A3004 RMK A01 T01361021  RH  034%=      5-min Rain = 0
KLE1 202322Z 13010KT 14/M02 A3004 RMK A01 T01371020  RH  034%=      5-min Rain = 0
KLE1 202323Z 12011KT 14/M02 A3004 RMK A01 T01361020  RH  034%=      5-min Rain = 0
KLE1 202324Z 13010KT 14/M02 A3004 RMK A01 T01351020  RH  034%=      5-min Rain = 0
KLE1 202325Z 13010KT 13/M02 A3004 RMK A01 T01341020  RH  034%=      5-min Rain = 0
KLE1 202326Z 13010KT 13/M02 A3004 RMK A01 T01341020  RH  034%=      5-min Rain = 0
KLE1 202327Z 12010KT 13/M02 A3004 RMK A01 T01331020  RH  035%=      5-min Rain = 0
KLE1 202328Z 12010KT 13/M02 A3004 RMK A01 T01331020  RH  035%=      5-min Rain = 0
KLE1 202329Z 12010KT 13/M02 A3004 RMK A01 T01321020  RH  035%=      5-min Rain = 0
KLE1 202330Z 13011KT 13/M02 A3004 RMK A01 T01321021  RH  035%=      5-min Rain = 0
KLE1 202331Z 12010KT 13/M02 A3004 RMK A01 T01321021  RH  035%=      5-min Rain = 0
KLE1 202332Z 13010KT 13/M02 A3004 RMK A01 T01311020  RH  035%=      5-min Rain = 0
KLE1 202333Z 12010KT 13/M02 A3004 RMK A01 T01301021  RH  035%=      5-min Rain = 0
KLE1 202334Z 12010KT 13/M02 A3004 RMK A01 T01291021  RH  035%=      5-min Rain = 0
KLE1 202335Z 12011KT 13/M02 A3004 RMK A01 T01291021  RH  035%=      5-min Rain = 0
KLE1 202336Z 12011KT 13/M02 A3004 RMK A01 T01291021  RH  035%=      5-min Rain = 0
KLE1 202337Z 12012KT 13/M02 A3004 RMK A01 T01291022  RH  035%=      5-min Rain = 0
KLE1 202338Z 12012KT 13/M02 A3004 RMK A01 T01291022  RH  035%=      5-min Rain = 0
KLE1 202339Z 12012KT 13/M02 A3004 RMK A01 T01281022  RH  035%=      5-min Rain = 0
KLE1 202340Z 12011KT 13/M02 A3004 RMK A01 T01281022  RH  035%=      5-min Rain = 0
KLE1 202341Z 12011KT 13/M02 A3004 RMK A01 T01281022  RH  035%=      5-min Rain = 0
KLE1 202342Z 12010KT 13/M02 A3004 RMK A01 T01271022  RH  035%=      5-min Rain = 0
KLE1 202343Z 12011KT 13/M02 A3004 RMK A01 T01261022  RH  036%=      5-min Rain = 0
KLE1 202344Z 12010KT 13/M02 A3004 RMK A01 T01251022  RH  036%=      5-min Rain = 0
KLE1 202345Z 12010KT 12/M02 A3003 RMK A01 T01241022  RH  036%=      5-min Rain = 0
KLE1 202346Z 11011KT 12/M02 A3003 RMK A01 T01231022  RH  036%=      5-min Rain = 0
KLE1 202347Z 12011KT 12/M02 A3003 RMK A01 T01231022  RH  036%=      5-min Rain = 0
KLE1 202348Z 12010KT 12/M02 A3003 RMK A01 T01221022  RH  037%=      5-min Rain = 0
KLE1 202349Z 12011KT 12/M02 A3003 RMK A01 T01221022  RH  037%=      5-min Rain = 0
KLE1 202350Z 12011KT 12/M02 A3003 RMK A01 T01211022  RH  037%=      5-min Rain = 0
KLE1 202351Z 12011KT 12/M02 A3003 RMK A01 T01201022  RH  037%=      5-min Rain = 0
KLE1 202352Z 12011KT 12/M02 A3003 RMK A01 T01201022  RH  037%=      5-min Rain = 0
KLE1 202353Z 12011KT 12/M02 A3003 RMK A01 T01201022  RH  037%=      5-min Rain = 0
KLE1 202354Z 12011KT 12/M02 A3003 RMK A01 T01191022  RH  037%=      5-min Rain = 0
KLE1 202355Z 12011KT 12/M02 A3003 RMK A01 T01181022  RH  038%=      5-min Rain = 0
KLE1 202356Z 12010KT 12/M02 A3003 RMK A01 T01171022  RH  038%=      5-min Rain = 0
KLE1 202357Z 12010KT 12/M02 A3003 RMK A01 T01161022  RH  038%=      5-min Rain = 0
KLE1 202358Z 11011KT 12/M02 A3003 RMK A01 T01151022  RH  038%=      5-min Rain = 0
KLE1 202359Z 12011KT 12/M02 A3003 RMK A01 T01151022  RH  039%=      5-min Rain = 0
KLE1 210000Z 11010KT 11/M02 A3003 RMK A01 T01141022  RH  039%=      5-min Rain = 0
KLE1 210001Z 12010KT 11/M02 A3003 RMK A01 T01131022  RH  039%=      5-min Rain = 0
KLE1 210002Z 11011KT 11/M02 A3004 RMK A01 T01131022  RH  039%=      5-min Rain = 0
KLE1 210003Z 11011KT 11/M02 A3004 RMK A01 T01121022  RH  039%=      5-min Rain = 0
KLE1 210004Z 11011KT 11/M02 A3003 RMK A01 T01121022  RH  039%=      5-min Rain = 0
KLE1 210005Z 11010KT 11/M02 A3003 RMK A01 T01111022  RH  039%=      5-min Rain = 0
KLE1 210006Z 11010KT 11/M02 A3003 RMK A01 T01101021  RH  040%=      5-min Rain = 0
KLE1 210007Z 11011KT 11/M02 A3003 RMK A01 T01101022  RH  040%=      5-min Rain = 0
KLE1 210008Z 11010KT 11/M02 A3003 RMK A01 T01091022  RH  040%=      5-min Rain = 0
KLE1 210009Z 11011KT 11/M02 A3003 RMK A01 T01081022  RH  040%=      5-min Rain = 0
KLE1 210010Z 11011KT 11/M02 A3003 RMK A01 T01081022  RH  040%=      5-min Rain = 0
KLE1 210011Z 11010KT 11/M02 A3003 RMK A01 T01071022  RH  040%=      5-min Rain = 0
KLE1 210012Z 11010KT 11/M02 A3003 RMK A01 T01061023  RH  041%=      5-min Rain = 0
KLE1 210013Z 11011KT 11/M02 A3003 RMK A01 T01051022  RH  041%=      5-min Rain = 0
KLE1 210014Z 11011KT 11/M02 A3003 RMK A01 T01051022  RH  041%=      5-min Rain = 0
KLE1 210015Z 11011KT 11/M02 A3003 RMK A01 T01051022  RH  041%=      5-min Rain = 0
KLE1 210016Z 11011KT 11/M02 A3003 RMK A01 T01051022  RH  041%=      5-min Rain = 0
KLE1 210017Z 11011KT 10/M02 A3003 RMK A01 T01041022  RH  041%=      5-min Rain = 0
KLE1 210018Z 11011KT 10/M02 A3003 RMK A01 T01041022  RH  041%=      5-min Rain = 0
KLE1 210019Z 11010KT 10/M02 A3003 RMK A01 T01041022  RH  041%=      5-min Rain = 0
KLE1 210020Z 11010KT 10/M02 A3003 RMK A01 T01041022  RH  041%=      5-min Rain = 0
KLE1 210021Z 10010KT 10/M02 A3003 RMK A01 T01021023  RH  042%=      5-min Rain = 0
KLE1 210022Z 10010KT 10/M02 A3003 RMK A01 T01001023  RH  042%=      5-min Rain = 0
KLE1 210023Z 11010KT 10/M02 A3003 RMK A01 T00991023  RH  042%=      5-min Rain = 0
KLE1 210024Z 11010KT 10/M02 A3003 RMK A01 T00991023  RH  042%=      5-min Rain = 0
KLE1 210025Z 11010KT 10/M02 A3003 RMK A01 T00981023  RH  043%=      5-min Rain = 0
KLE1 210026Z 11010KT 10/M02 A3003 RMK A01 T00981022  RH  043%=      5-min Rain = 0
KLE1 210027Z 11011KT 10/M02 A3003 RMK A01 T00981022  RH  043%=      5-min Rain = 0
KLE1 210028Z 11010KT 10/M02 A3003 RMK A01 T00981022  RH  043%=      5-min Rain = 0
KLE1 210029Z 11011KT 10/M02 A3003 RMK A01 T00981022  RH  043%=      5-min Rain = 0
KLE1 210030Z 11011KT 10/M02 A3003 RMK A01 T00981022  RH  043%=      5-min Rain = 0
KLE1 210031Z 11010KT 10/M02 A3003 RMK A01 T00971022  RH  043%=      5-min Rain = 0
KLE1 210032Z 10011KT 10/M02 A3003 RMK A01 T00961022  RH  043%=      5-min Rain = 0
KLE1 210033Z 11011KT 10/M02 A3003 RMK A01 T00961022  RH  044%=      5-min Rain = 0
KLE1 210034Z 10011KT 10/M02 A3003 RMK A01 T00961022  RH  044%=      5-min Rain = 0
KLE1 210035Z 10010KT 10/M02 A3003 RMK A01 T00951022  RH  044%=      5-min Rain = 0
KLE1 210036Z 10011KT 09/M02 A3003 RMK A01 T00941022  RH  044%=      5-min Rain = 0
KLE1 210037Z 10010KT 09/M02 A3003 RMK A01 T00941022  RH  044%=      5-min Rain = 0
KLE1 210038Z 10010KT 09/M02 A3003 RMK A01 T00941022  RH  044%=      5-min Rain = 0
KLE1 210039Z 11011KT 09/M02 A3003 RMK A01 T00941022  RH  044%=      5-min Rain = 0
KLE1 210040Z 10010KT 09/M02 A3003 RMK A01 T00941022  RH  044%=      5-min Rain = 0
KLE1 210041Z 10010KT 09/M02 A3003 RMK A01 T00931022  RH  044%=      5-min Rain = 0
KLE1 210042Z 10010KT 09/M02 A3003 RMK A01 T00931021  RH  045%=      5-min Rain = 0
KLE1 210043Z 10010KT 09/M02 A3003 RMK A01 T00931022  RH  045%=      5-min Rain = 0
KLE1 210044Z 10010KT 09/M02 A3003 RMK A01 T00931021  RH  045%=      5-min Rain = 0
KLE1 210045Z 10011KT 09/M02 A3003 RMK A01 T00921021  RH  045%=      5-min Rain = 0
KLE1 210046Z 10010KT 09/M02 A3003 RMK A01 T00931021  RH  045%=      5-min Rain = 0
KLE1 210047Z 10010KT 09/M02 A3003 RMK A01 T00921021  RH  045%=      5-min Rain = 0
KLE1 210048Z 10010KT 09/M02 A3003 RMK A01 T00921022  RH  045%=      5-min Rain = 0
KLE1 210049Z 10010KT 09/M02 A3003 RMK A01 T00911022  RH  045%=      5-min Rain = 0
KLE1 210050Z 10010KT 09/M02 A3003 RMK A01 T00901022  RH  045%=      5-min Rain = 0
KLE1 210051Z 10010KT 09/M02 A3003 RMK A01 T00901022  RH  045%=      5-min Rain = 0
KLE1 210052Z 09009KT 09/M02 A3003 RMK A01 T00901022  RH  045%=      5-min Rain = 0
KLE1 210053Z 09009KT 09/M02 A3003 RMK A01 T00891022  RH  046%=      5-min Rain = 0
KLE1 210054Z 09009KT 09/M02 A3003 RMK A01 T00881023  RH  046%=      5-min Rain = 0
KLE1 210055Z 09009KT 09/M02 A3003 RMK A01 T00871023  RH  046%=      5-min Rain = 0
KLE1 210056Z 09010KT 09/M02 A3003 RMK A01 T00861022  RH  046%=      5-min Rain = 0
KLE1 210057Z 09009KT 09/M02 A3003 RMK A01 T00861022  RH  047%=      5-min Rain = 0
KLE1 210058Z 09009KT 09/M02 A3003 RMK A01 T00861022  RH  047%=      5-min Rain = 0
KLE1 210059Z 09009KT 09/M02 A3004 RMK A01 T00851022  RH  047%=      5-min Rain = 0
KLE1 210100Z 09009KT 09/M02 A3004 RMK A01 T00851022  RH  047%=      5-min Rain = 0
KLE1 210101Z 08009KT 08/M02 A3004 RMK A01 T00841022  RH  047%=      5-min Rain = 0
KLE1 210102Z 08009KT 08/M02 A3004 RMK A01 T00841022  RH  047%=      5-min Rain = 0
KLE1 210103Z 08009KT 08/M02 A3004 RMK A01 T00831022  RH  047%=      5-min Rain = 0
KLE1 210104Z 08009KT 08/M02 A3004 RMK A01 T00821023  RH  047%=      5-min Rain = 0
KLE1 210105Z 08009KT 08/M02 A3004 RMK A01 T00821023  RH  048%=      5-min Rain = 0
KLE1 210106Z 08008KT 08/M02 A3004 RMK A01 T00801023  RH  048%=      5-min Rain = 0
KLE1 210107Z 08009KT 08/M02 A3004 RMK A01 T00801023  RH  048%=      5-min Rain = 0
KLE1 210108Z 08009KT 08/M02 A3004 RMK A01 T00791023  RH  049%=      5-min Rain = 0
KLE1 210109Z 08009KT 08/M02 A3004 RMK A01 T00781023  RH  049%=      5-min Rain = 0
KLE1 210110Z 08009KT 08/M02 A3004 RMK A01 T00781023  RH  049%=      5-min Rain = 0
KLE1 210111Z 08008KT 08/M02 A3004 RMK A01 T00781023  RH  049%=      5-min Rain = 0
KLE1 210112Z 08008KT 08/M02 A3004 RMK A01 T00781023  RH  049%=      5-min Rain = 0
KLE1 210113Z 08009KT 08/M02 A3004 RMK A01 T00771023  RH  049%=      5-min Rain = 0
KLE1 210114Z 08009KT 08/M02 A3004 RMK A01 T00761023  RH  049%=      5-min Rain = 0
KLE1 210115Z 08009KT 08/M02 A3004 RMK A01 T00761022  RH  050%=      5-min Rain = 0
KLE1 210116Z 08009KT 08/M02 A3004 RMK A01 T00761023  RH  050%=      5-min Rain = 0
KLE1 210117Z 08009KT 08/M02 A3004 RMK A01 T00751023  RH  050%=      5-min Rain = 0
KLE1 210118Z 08009KT 08/M02 A3004 RMK A01 T00751023  RH  050%=      5-min Rain = 0
KLE1 210119Z 08009KT 07/M02 A3004 RMK A01 T00741023  RH  050%=      5-min Rain = 0
KLE1 210120Z 08009KT 07/M02 A3004 RMK A01 T00741023  RH  050%=      5-min Rain = 0
KLE1 210121Z 08009KT 07/M02 A3004 RMK A01 T00731023  RH  050%=      5-min Rain = 0
KLE1 210122Z 08009KT 07/M02 A3004 RMK A01 T00731023  RH  051%=      5-min Rain = 0
KLE1 210123Z 08009KT 07/M02 A3004 RMK A01 T00731023  RH  051%=      5-min Rain = 0
KLE1 210124Z 08009KT 07/M02 A3004 RMK A01 T00731022  RH  051%=      5-min Rain = 0
KLE1 210125Z 09009KT 07/M02 A3004 RMK A01 T00731022  RH  051%=      5-min Rain = 0
KLE1 210126Z 09009KT 07/M02 A3004 RMK A01 T00721022  RH  051%=      5-min Rain = 0
KLE1 210127Z 09009KT 07/M02 A3004 RMK A01 T00721022  RH  051%=      5-min Rain = 0
KLE1 210128Z 08009KT 07/M02 A3004 RMK A01 T00721022  RH  051%=      5-min Rain = 0
KLE1 210129Z 09009KT 07/M02 A3004 RMK A01 T00711022  RH  051%=      5-min Rain = 0
KLE1 210130Z 09009KT 07/M02 A3004 RMK A01 T00701022  RH  052%=      5-min Rain = 0
KLE1 210131Z 08009KT 07/M02 A3004 RMK A01 T00701022  RH  052%=      5-min Rain = 0
KLE1 210132Z 09009KT 07/M02 A3004 RMK A01 T00701022  RH  052%=      5-min Rain = 0
KLE1 210133Z 08009KT 07/M02 A3004 RMK A01 T00701022  RH  052%=      5-min Rain = 0
KLE1 210134Z 08009KT 07/M02 A3004 RMK A01 T00701021  RH  052%=      5-min Rain = 0
KLE1 210135Z 08009KT 07/M02 A3004 RMK A01 T00701021  RH  052%=      5-min Rain = 0
KLE1 210136Z 08009KT 07/M02 A3004 RMK A01 T00691022  RH  052%=      5-min Rain = 0
KLE1 210137Z 08009KT 07/M02 A3004 RMK A01 T00691022  RH  052%=      5-min Rain = 0
KLE1 210138Z 08009KT 07/M02 A3004 RMK A01 T00681022  RH  053%=      5-min Rain = 0
KLE1 210139Z 08008KT 07/M02 A3004 RMK A01 T00681022  RH  053%=      5-min Rain = 0
KLE1 210140Z 08009KT 07/M02 A3004 RMK A01 T00681021  RH  053%=      5-min Rain = 0
KLE1 210141Z 08008KT 07/M02 A3004 RMK A01 T00681022  RH  053%=      5-min Rain = 0
KLE1 210142Z 08009KT 07/M02 A3004 RMK A01 T00681021  RH  053%=      5-min Rain = 0
KLE1 210143Z 08008KT 07/M02 A3004 RMK A01 T00681021  RH  053%=      5-min Rain = 0
KLE1 210144Z 08008KT 07/M02 A3004 RMK A01 T00671021  RH  053%=      5-min Rain = 0
KLE1 210145Z 08009KT 07/M02 A3004 RMK A01 T00671021  RH  053%=      5-min Rain = 0
KLE1 210146Z 08008KT 07/M02 A3004 RMK A01 T00671021  RH  053%=      5-min Rain = 0
KLE1 210147Z 08009KT 07/M02 A3004 RMK A01 T00671022  RH  053%=      5-min Rain = 0
KLE1 210148Z 08009KT 07/M02 A3004 RMK A01 T00661022  RH  053%=      5-min Rain = 0
KLE1 210149Z 08009KT 07/M02 A3004 RMK A01 T00661022  RH  054%=      5-min Rain = 0
KLE1 210150Z 09008KT 07/M02 A3004 RMK A01 T00651021  RH  054%=      5-min Rain = 0
KLE1 210151Z 08008KT 07/M02 A3004 RMK A01 T00651022  RH  054%=      5-min Rain = 0
KLE1 210152Z 08009KT 06/M02 A3004 RMK A01 T00641022  RH  054%=      5-min Rain = 0
KLE1 210153Z 08009KT 06/M02 A3004 RMK A01 T00631022  RH  054%=      5-min Rain = 0
KLE1 210154Z 08009KT 06/M02 A3004 RMK A01 T00631022  RH  055%=      5-min Rain = 0
KLE1 210155Z 08009KT 06/M02 A3004 RMK A01 T00621022  RH  055%=      5-min Rain = 0
KLE1 210156Z 08009KT 06/M02 A3004 RMK A01 T00621022  RH  055%=      5-min Rain = 0
KLE1 210157Z 09009KT 06/M02 A3004 RMK A01 T00621022  RH  055%=      5-min Rain = 0
KLE1 210158Z 09009KT 06/M02 A3004 RMK A01 T00621022  RH  055%=      5-min Rain = 0
KLE1 210159Z 08009KT 06/M02 A3004 RMK A01 T00621022  RH  055%=      5-min Rain = 0
KLE1 210200Z 09009KT 06/M02 A3004 RMK A01 T00621022  RH  055%=      5-min Rain = 0
KLE1 210201Z 09009KT 06/M02 A3004 RMK A01 T00611022  RH  055%=      5-min Rain = 0
KLE1 210202Z 09009KT 06/M02 A3004 RMK A01 T00611022  RH  055%=      5-min Rain = 0
KLE1 210203Z 09009KT 06/M02 A3004 RMK A01 T00601022  RH  056%=      5-min Rain = 0
KLE1 210204Z 09009KT 06/M02 A3003 RMK A01 T00601022  RH  056%=      5-min Rain = 0
KLE1 210205Z 09009KT 06/M02 A3003 RMK A01 T00601021  RH  056%=      5-min Rain = 0
KLE1 210206Z 09009KT 06/M02 A3003 RMK A01 T00601021  RH  056%=      5-min Rain = 0
KLE1 210207Z 09009KT 06/M02 A3003 RMK A01 T00601021  RH  056%=      5-min Rain = 0
KLE1 210208Z 09010KT 06/M02 A3003 RMK A01 T00601021  RH  056%=      5-min Rain = 0
KLE1 210209Z 09010KT 06/M02 A3003 RMK A01 T00601020  RH  057%=      5-min Rain = 0
KLE1 210210Z 10009KT 06/M02 A3003 RMK A01 T00601019  RH  057%=      5-min Rain = 0
KLE1 210211Z 09010KT 06/M02 A3003 RMK A01 T00611019  RH  056%=      5-min Rain = 0
KLE1 210212Z 09010KT 06/M02 A3003 RMK A01 T00611019  RH  056%=      5-min Rain = 0
KLE1 210213Z 09010KT 06/M02 A3003 RMK A01 T00611019  RH  056%=      5-min Rain = 0
KLE1 210214Z 09010KT 06/M02 A3003 RMK A01 T00621019  RH  056%=      5-min Rain = 0
KLE1 210215Z 09009KT 06/M02 A3003 RMK A01 T00621019  RH  056%=      5-min Rain = 0
KLE1 210216Z 09009KT 06/M02 A3003 RMK A01 T00621019  RH  056%=      5-min Rain = 0
KLE1 210217Z 09010KT 06/M02 A3003 RMK A01 T00621019  RH  056%=      5-min Rain = 0
KLE1 210218Z 09010KT 06/M02 A3003 RMK A01 T00621019  RH  056%=      5-min Rain = 0
KLE1 210219Z 09009KT 06/M02 A3003 RMK A01 T00621019  RH  056%=      5-min Rain = 0
KLE1 210220Z 09009KT 06/M02 A3003 RMK A01 T00611019  RH  057%=      5-min Rain = 0
KLE1 210221Z 09009KT 06/M02 A3003 RMK A01 T00611019  RH  057%=      5-min Rain = 0
KLE1 210222Z 09009KT 06/M02 A3003 RMK A01 T00611018  RH  057%=      5-min Rain = 0
KLE1 210223Z 09009KT 06/M02 A3003 RMK A01 T00601019  RH  057%=      5-min Rain = 0
KLE1 210224Z 09009KT 06/M02 A3003 RMK A01 T00601018  RH  057%=      5-min Rain = 0
KLE1 210225Z 08009KT 06/M02 A3003 RMK A01 T00601018  RH  057%=      5-min Rain = 0
KLE1 210226Z 08008KT 06/M02 A3003 RMK A01 T00591019  RH  057%=      5-min Rain = 0
KLE1 210227Z 08009KT 06/M02 A3003 RMK A01 T00591019  RH  057%=      5-min Rain = 0
KLE1 210228Z 08009KT 06/M02 A3003 RMK A01 T00581019  RH  058%=      5-min Rain = 0
KLE1 210229Z 08009KT 06/M02 A3003 RMK A01 T00581019  RH  058%=      5-min Rain = 0
KLE1 210230Z 08009KT 06/M02 A3003 RMK A01 T00581019  RH  058%=      5-min Rain = 0
KLE1 210231Z 08008KT 06/M02 A3003 RMK A01 T00561019  RH  058%=      5-min Rain = 0
KLE1 210232Z 08009KT 06/M02 A3003 RMK A01 T00551020  RH  058%=      5-min Rain = 0
KLE1 210233Z 08009KT 06/M02 A3003 RMK A01 T00551020  RH  059%=      5-min Rain = 0
KLE1 210234Z 08009KT 05/M02 A3003 RMK A01 T00541020  RH  059%=      5-min Rain = 0
KLE1 210235Z 08009KT 05/M02 A3003 RMK A01 T00531020  RH  059%=      5-min Rain = 0
KLE1 210236Z 08009KT 05/M02 A3003 RMK A01 T00531020  RH  059%=      5-min Rain = 0
KLE1 210237Z 08009KT 05/M02 A3003 RMK A01 T00531020  RH  059%=      5-min Rain = 0
KLE1 210238Z 08010KT 05/M02 A3003 RMK A01 T00531019  RH  059%=      5-min Rain = 0
KLE1 210239Z 08009KT 05/M02 A3003 RMK A01 T00531020  RH  059%=      5-min Rain = 0
KLE1 210240Z 08009KT 05/M02 A3003 RMK A01 T00531020  RH  059%=      5-min Rain = 0
KLE1 210241Z 08009KT 05/M02 A3003 RMK A01 T00521020  RH  060%=      5-min Rain = 0
KLE1 210242Z 08009KT 05/M02 A3003 RMK A01 T00511020  RH  060%=      5-min Rain = 0
KLE1 210243Z 08009KT 05/M02 A3003 RMK A01 T00511020  RH  060%=      5-min Rain = 0
KLE1 210244Z 08009KT 05/M02 A3003 RMK A01 T00501020  RH  060%=      5-min Rain = 0
KLE1 210245Z 07009KT 05/M02 A3003 RMK A01 T00501020  RH  061%=      5-min Rain = 0
KLE1 210246Z 07008KT 05/M02 A3003 RMK A01 T00501020  RH  061%=      5-min Rain = 0
KLE1 210247Z 08008KT 05/M02 A3003 RMK A01 T00501020  RH  060%=      5-min Rain = 0
KLE1 210248Z 07009KT 05/M02 A3003 RMK A01 T00501021  RH  060%=      5-min Rain = 0
KLE1 210249Z 07009KT 05/M02 A3003 RMK A01 T00491021  RH  060%=      5-min Rain = 0
KLE1 210250Z 07009KT 05/M02 A3003 RMK A01 T00491021  RH  060%=      5-min Rain = 0
KLE1 210251Z 07009KT 05/M02 A3003 RMK A01 T00491022  RH  060%=      5-min Rain = 0
KLE1 210252Z 07009KT 05/M02 A3003 RMK A01 T00481022  RH  061%=      5-min Rain = 0
KLE1 210253Z 07010KT 05/M02 A3002 RMK A01 T00481021  RH  061%=      5-min Rain = 0
KLE1 210254Z 07009KT 05/M02 A3002 RMK A01 T00491021  RH  061%=      5-min Rain = 0
KLE1 210255Z 07009KT 05/M02 A3002 RMK A01 T00491021  RH  061%=      5-min Rain = 0
KLE1 210256Z 06009KT 05/M02 A3002 RMK A01 T00481022  RH  061%=      5-min Rain = 0
KLE1 210257Z 07008KT 05/M02 A3002 RMK A01 T00481022  RH  061%=      5-min Rain = 0
KLE1 210258Z 06009KT 05/M02 A3002 RMK A01 T00471022  RH  061%=      5-min Rain = 0
KLE1 210259Z 06008KT 05/M02 A3002 RMK A01 T00461022  RH  061%=      5-min Rain = 0
KLE1 210300Z 06009KT 05/M02 A3002 RMK A01 T00461022  RH  061%=      5-min Rain = 0
KLE1 210301Z 07009KT 05/M02 A3003 RMK A01 T00461022  RH  061%=      5-min Rain = 0
KLE1 210302Z 07009KT 05/M02 A3002 RMK A01 T00451022  RH  062%=      5-min Rain = 0
KLE1 210303Z 06009KT 05/M02 A3002 RMK A01 T00451022  RH  062%=      5-min Rain = 0
KLE1 210304Z 06009KT 04/M02 A3002 RMK A01 T00441022  RH  062%=      5-min Rain = 0
KLE1 210305Z 06009KT 04/M02 A3002 RMK A01 T00441022  RH  062%=      5-min Rain = 0
KLE1 210306Z 06010KT 04/M02 A3002 RMK A01 T00441022  RH  062%=      5-min Rain = 0
KLE1 210307Z 06009KT 04/M02 A3002 RMK A01 T00431022  RH  062%=      5-min Rain = 0
KLE1 210308Z 06009KT 04/M02 A3002 RMK A01 T00431022  RH  062%=      5-min Rain = 0
KLE1 210309Z 06009KT 04/M02 A3002 RMK A01 T00431023  RH  062%=      5-min Rain = 0
KLE1 210310Z 06010KT 04/M02 A3002 RMK A01 T00421023  RH  063%=      5-min Rain = 0
KLE1 210311Z 07009KT 04/M02 A3002 RMK A01 T00421023  RH  063%=      5-min Rain = 0
KLE1 210312Z 06009KT 04/M02 A3002 RMK A01 T00421023  RH  063%=      5-min Rain = 0
KLE1 210313Z 06009KT 04/M02 A3002 RMK A01 T00421023  RH  063%=      5-min Rain = 0
KLE1 210314Z 07009KT 04/M02 A3002 RMK A01 T00421023  RH  063%=      5-min Rain = 0
KLE1 210315Z 07009KT 04/M02 A3002 RMK A01 T00411023  RH  063%=      5-min Rain = 0
KLE1 210316Z 07009KT 04/M02 A3002 RMK A01 T00411023  RH  063%=      5-min Rain = 0
KLE1 210317Z 07009KT 04/M02 A3002 RMK A01 T00411023  RH  063%=      5-min Rain = 0
KLE1 210318Z 07009KT 04/M02 A3002 RMK A01 T00411023  RH  063%=      5-min Rain = 0
KLE1 210319Z 07009KT 04/M02 A3002 RMK A01 T00401023  RH  063%=      5-min Rain = 0
KLE1 210320Z 07010KT 04/M02 A3002 RMK A01 T00401023  RH  063%=      5-min Rain = 0
KLE1 210321Z 07008KT 04/M02 A3002 RMK A01 T00401023  RH  064%=      5-min Rain = 0
KLE1 210322Z 07009KT 04/M02 A3002 RMK A01 T00391024  RH  064%=      5-min Rain = 0
KLE1 210323Z 07009KT 04/M02 A3002 RMK A01 T00381024  RH  064%=      5-min Rain = 0
KLE1 210324Z 07009KT 04/M02 A3002 RMK A01 T00381024  RH  064%=      5-min Rain = 0
KLE1 210325Z 07009KT 04/M02 A3002 RMK A01 T00371024  RH  064%=      5-min Rain = 0
KLE1 210326Z 07010KT 04/M02 A3002 RMK A01 T00371024  RH  064%=      5-min Rain = 0
KLE1 210327Z 07009KT 04/M02 A3002 RMK A01 T00361024  RH  065%=      5-min Rain = 0
KLE1 210328Z 07009KT 04/M02 A3002 RMK A01 T00361024  RH  065%=      5-min Rain = 0
KLE1 210329Z 07008KT 04/M02 A3002 RMK A01 T00361024  RH  065%=      5-min Rain = 0
KLE1 210330Z 07008KT 04/M03 A3002 RMK A01 T00351025  RH  065%=      5-min Rain = 0
KLE1 210331Z 07009KT 04/M02 A3002 RMK A01 T00351024  RH  065%=      5-min Rain = 0
KLE1 210332Z 07007KT 04/M03 A3002 RMK A01 T00351025  RH  065%=      5-min Rain = 0
KLE1 210333Z 07008KT 03/M03 A3002 RMK A01 T00341025  RH  065%=      5-min Rain = 0
KLE1 210334Z 08007KT 03/M03 A3002 RMK A01 T00341025  RH  065%=      5-min Rain = 0
KLE1 210335Z 09007KT 03/M03 A3002 RMK A01 T00331025  RH  066%=      5-min Rain = 0
KLE1 210336Z 08007KT 03/M03 A3002 RMK A01 T00331025  RH  066%=      5-min Rain = 0
KLE1 210337Z 07007KT 03/M03 A3001 RMK A01 T00321026  RH  066%=      5-min Rain = 0
KLE1 210338Z 07008KT 03/M03 A3001 RMK A01 T00321026  RH  066%=      5-min Rain = 0
KLE1 210339Z 07008KT 03/M03 A3001 RMK A01 T00311026  RH  066%=      5-min Rain = 0
KLE1 210340Z 07008KT 03/M03 A3001 RMK A01 T00311025  RH  066%=      5-min Rain = 0
KLE1 210341Z 07008KT 03/M03 A3001 RMK A01 T00311025  RH  066%=      5-min Rain = 0
KLE1 210342Z 07008KT 03/M03 A3001 RMK A01 T00311025  RH  066%=      5-min Rain = 0
KLE1 210343Z 07008KT 03/M03 A3001 RMK A01 T00311026  RH  066%=      5-min Rain = 0
KLE1 210344Z 07009KT 03/M03 A3001 RMK A01 T00301026  RH  066%=      5-min Rain = 0
KLE1 210345Z 07009KT 03/M03 A3001 RMK A01 T00301026  RH  067%=      5-min Rain = 0
KLE1 210346Z 07009KT 03/M03 A3001 RMK A01 T00301026  RH  067%=      5-min Rain = 0
KLE1 210347Z 07009KT 03/M03 A3001 RMK A01 T00301026  RH  067%=      5-min Rain = 0
KLE1 210348Z 07010KT 03/M03 A3001 RMK A01 T00301026  RH  067%=      5-min Rain = 0
KLE1 210349Z 07010KT 03/M03 A3001 RMK A01 T00301026  RH  067%=      5-min Rain = 0
KLE1 210350Z 07010KT 03/M03 A3001 RMK A01 T00301026  RH  067%=      5-min Rain = 0
KLE1 210351Z 07011KT 03/M03 A3001 RMK A01 T00301026  RH  067%=      5-min Rain = 0
KLE1 210352Z 07010KT 03/M03 A3001 RMK A01 T00291026  RH  067%=      5-min Rain = 0
KLE1 210353Z 07011KT 03/M03 A30 RMK A01 T00291026  RH  067%=      5-min Rain = 0
KLE1 210354Z 07009KT 03/M03 A3001 RMK A01 T00291026  RH  067%=      5-min Rain = 0
KLE1 210355Z 07010KT 03/M03 A30 RMK A01 T00291026  RH  067%=      5-min Rain = 0
KLE1 210356Z 07010KT 03/M03 A30 RMK A01 T00291026  RH  067%=      5-min Rain = 0
KLE1 210357Z 06010KT 03/M03 A30 RMK A01 T00291026  RH  067%=      5-min Rain = 0
KLE1 210358Z 07009KT 03/M03 A30 RMK A01 T00291026  RH  067%=      5-min Rain = 0
KLE1 210359Z 06010KT 03/M03 A30 RMK A01 T00281026  RH  067%=      5-min Rain = 0
KLE1 210400Z 06008KT 03/M03 A3001 RMK A01 T00281026  RH  068%=      5-min Rain = 0
KLE1 210401Z 06009KT 03/M03 A3001 RMK A01 T00281026  RH  068%=      5-min Rain = 0
KLE1 210402Z 06009KT 03/M03 A3001 RMK A01 T00291025  RH  068%=      5-min Rain = 0
KLE1 210403Z 06010KT 03/M03 A3001 RMK A01 T00291025  RH  068%=      5-min Rain = 0
KLE1 210404Z 06009KT 03/M03 A3001 RMK A01 T00291025  RH  068%=      5-min Rain = 0
KLE1 210405Z 06008KT 03/M03 A3001 RMK A01 T00291025  RH  068%=      5-min Rain = 0
KLE1 210406Z 06009KT 03/M03 A3001 RMK A01 T00281026  RH  068%=      5-min Rain = 0
KLE1 210407Z 06009KT 03/M03 A3001 RMK A01 T00291026  RH  068%=      5-min Rain = 0
KLE1 210408Z 06009KT 03/M03 A3001 RMK A01 T00291025  RH  068%=      5-min Rain = 0
KLE1 210409Z 06009KT 03/M03 A3001 RMK A01 T00291025  RH  068%=      5-min Rain = 0
KLE1 210410Z 06010KT 03/M03 A3001 RMK A01 T00291025  RH  068%=      5-min Rain = 0
KLE1 210411Z 06010KT 03/M03 A3001 RMK A01 T00291025  RH  068%=      5-min Rain = 0
KLE1 210412Z 06009KT 03/M03 A3001 RMK A01 T00301025  RH  068%=      5-min Rain = 0
KLE1 210413Z 06010KT 03/M03 A3001 RMK A01 T00291025  RH  067%=      5-min Rain = 0
KLE1 210414Z 06010KT 03/M03 A3001 RMK A01 T00291025  RH  067%=      5-min Rain = 0
KLE1 210415Z 06009KT 03/M03 A30 RMK A01 T00301025  RH  067%=      5-min Rain = 0
KLE1 210416Z 07010KT 03/M03 A30 RMK A01 T00301025  RH  067%=      5-min Rain = 0
KLE1 210417Z 07010KT 03/M02 A30 RMK A01 T00301024  RH  067%=      5-min Rain = 0
KLE1 210418Z 07010KT 03/M02 A30 RMK A01 T00301024  RH  068%=      5-min Rain = 0
KLE1 210419Z 07010KT 03/M02 A30 RMK A01 T00301024  RH  067%=      5-min Rain = 0
KLE1 210420Z 07009KT 03/M03 A30 RMK A01 T00301025  RH  067%=      5-min Rain = 0
KLE1 210421Z 07009KT 03/M03 A30 RMK A01 T00301025  RH  067%=      5-min Rain = 0
KLE1 210422Z 07010KT 03/M03 A30 RMK A01 T00291025  RH  067%=      5-min Rain = 0
KLE1 210423Z 07011KT 03/M03 A30 RMK A01 T00291025  RH  068%=      5-min Rain = 0
KLE1 210424Z 07011KT 03/M03 A30 RMK A01 T00291025  RH  068%=      5-min Rain = 0
KLE1 210425Z 07012KT 03/M03 A30 RMK A01 T00291025  RH  068%=      5-min Rain = 0
KLE1 210426Z 07011KT 03/M03 A30 RMK A01 T00281025  RH  068%=      5-min Rain = 0
KLE1 210427Z 07011KT 03/M03 A30 RMK A01 T00281026  RH  068%=      5-min Rain = 0
KLE1 210428Z 07011KT 03/M03 A30 RMK A01 T00271026  RH  068%=      5-min Rain = 0
KLE1 210429Z 07011KT 03/M03 A2999 RMK A01 T00261026  RH  068%=      5-min Rain = 0
KLE1 210430Z 07010KT 03/M03 A2999 RMK A01 T00251027  RH  069%=      5-min Rain = 0
KLE1 210431Z 07010KT 02/M03 A2999 RMK A01 T00241027  RH  069%=      5-min Rain = 0
KLE1 210432Z 07010KT 02/M03 A2999 RMK A01 T00231027  RH  069%=      5-min Rain = 0
KLE1 210433Z 07010KT 02/M03 A2999 RMK A01 T00231027  RH  069%=      5-min Rain = 0
KLE1 210434Z 07010KT 02/M03 A2999 RMK A01 T00231027  RH  070%=      5-min Rain = 0
KLE1 210435Z 07010KT 02/M03 A2999 RMK A01 T00231027  RH  070%=      5-min Rain = 0
KLE1 210436Z 07010KT 02/M03 A2999 RMK A01 T00221027  RH  070%=      5-min Rain = 0
KLE1 210437Z 07011KT 02/M03 A2999 RMK A01 T00221027  RH  070%=      5-min Rain = 0
KLE1 210438Z 07011KT 02/M03 A2999 RMK A01 T00221027  RH  070%=      5-min Rain = 0
KLE1 210439Z 07011KT 02/M03 A2999 RMK A01 T00221027  RH  070%=      5-min Rain = 0
KLE1 210440Z 07010KT 02/M03 A30 RMK A01 T00231026  RH  070%=      5-min Rain = 0
KLE1 210441Z 07010KT 02/M03 A30 RMK A01 T00231027  RH  070%=      5-min Rain = 0
KLE1 210442Z 07011KT 02/M03 A30 RMK A01 T00221027  RH  070%=      5-min Rain = 0
KLE1 210443Z 07011KT 02/M03 A30 RMK A01 T00221027  RH  070%=      5-min Rain = 0
KLE1 210444Z 07011KT 02/M03 A30 RMK A01 T00221027  RH  070%=      5-min Rain = 0
KLE1 210445Z 07011KT 02/M03 A30 RMK A01 T00221027  RH  070%=      5-min Rain = 0
KLE1 210446Z 07010KT 02/M03 A30 RMK A01 T00221027  RH  070%=      5-min Rain = 0
KLE1 210447Z 07010KT 02/M03 A30 RMK A01 T00221027  RH  070%=      5-min Rain = 0
KLE1 210448Z 07011KT 02/M03 A30 RMK A01 T00211028  RH  070%=      5-min Rain = 0
KLE1 210449Z 07011KT 02/M03 A30 RMK A01 T00211027  RH  070%=      5-min Rain = 0
KLE1 210450Z 07011KT 02/M03 A30 RMK A01 T00211027  RH  070%=      5-min Rain = 0
KLE1 210451Z 07011KT 02/M03 A30 RMK A01 T00211027  RH  070%=      5-min Rain = 0
KLE1 210452Z 07011KT 02/M03 A30 RMK A01 T00211027  RH  070%=      5-min Rain = 0
KLE1 210453Z 07010KT 02/M03 A30 RMK A01 T00211027  RH  070%=      5-min Rain = 0
KLE1 210454Z 07011KT 02/M03 A30 RMK A01 T00211027  RH  070%=      5-min Rain = 0
KLE1 210455Z 07010KT 02/M03 A30 RMK A01 T00211028  RH  070%=      5-min Rain = 0
KLE1 210456Z 07010KT 02/M03 A30 RMK A01 T00201028  RH  070%=      5-min Rain = 0
KLE1 210457Z 06010KT 02/M03 A30 RMK A01 T00201027  RH  071%=      5-min Rain = 0
KLE1 210458Z 06009KT 02/M03 A30 RMK A01 T00201027  RH  071%=      5-min Rain = 0
KLE1 210459Z 06008KT 02/M03 A30 RMK A01 T00201028  RH  071%=      5-min Rain = 0
KLE1 210500Z 06010KT 02/M03 A30 RMK A01 T00201028  RH  070%=      5-min Rain = 0
KLE1 210501Z 06009KT 02/M03 A30 RMK A01 T00191028  RH  071%=      5-min Rain = 0
KLE1 210502Z 06009KT 02/M03 A30 RMK A01 T00191028  RH  071%=      5-min Rain = 0
KLE1 210503Z 06009KT 02/M03 A30 RMK A01 T00191028  RH  071%=      5-min Rain = 0
KLE1 210504Z 06009KT 02/M03 A30 RMK A01 T00191028  RH  071%=      5-min Rain = 0
KLE1 210505Z 07009KT 02/M03 A30 RMK A01 T00191028  RH  071%=      5-min Rain = 0
KLE1 210506Z 06009KT 02/M03 A3001 RMK A01 T00191028  RH  071%=      5-min Rain = 0
KLE1 210507Z 06008KT 02/M03 A3001 RMK A01 T00191028  RH  071%=      5-min Rain = 0
KLE1 210508Z 06010KT 02/M03 A3001 RMK A01 T00191028  RH  071%=      5-min Rain = 0
KLE1 210509Z 06008KT 02/M03 A3001 RMK A01 T00191028  RH  071%=      5-min Rain = 0
KLE1 210510Z 06009KT 02/M03 A3001 RMK A01 T00191028  RH  071%=      5-min Rain = 0
KLE1 210511Z 06009KT 02/M03 A3001 RMK A01 T00191028  RH  071%=      5-min Rain = 0
KLE1 210512Z 06009KT 02/M03 A3001 RMK A01 T00191028  RH  071%=      5-min Rain = 0
KLE1 210513Z 06010KT 02/M03 A3001 RMK A01 T00191028  RH  071%=      5-min Rain = 0
KLE1 210514Z 06010KT 02/M03 A3001 RMK A01 T00191028  RH  071%=      5-min Rain = 0
KLE1 210515Z 06009KT 02/M03 A30 RMK A01 T00191028  RH  071%=      5-min Rain = 0
KLE1 210516Z 06009KT 02/M03 A30 RMK A01 T00201028  RH  071%=      5-min Rain = 0
KLE1 210517Z 06010KT 02/M03 A30 RMK A01 T00191029  RH  070%=      5-min Rain = 0
KLE1 210518Z 06009KT 02/M03 A30 RMK A01 T00201029  RH  070%=      5-min Rain = 0
KLE1 210519Z 06010KT 02/M03 A3001 RMK A01 T00191029  RH  070%=      5-min Rain = 0
KLE1 210520Z 06010KT 02/M03 A3001 RMK A01 T00201029  RH  070%=      5-min Rain = 0
KLE1 210521Z 06009KT 02/M03 A3001 RMK A01 T00191029  RH  070%=      5-min Rain = 0
KLE1 210522Z 06009KT 02/M03 A3001 RMK A01 T00181029  RH  071%=      5-min Rain = 0
KLE1 210523Z 06009KT 02/M03 A3001 RMK A01 T00181029  RH  071%=      5-min Rain = 0
KLE1 210524Z 06009KT 02/M03 A3001 RMK A01 T00181030  RH  071%=      5-min Rain = 0
KLE1 210525Z 06008KT 02/M03 A3001 RMK A01 T00181030  RH  071%=      5-min Rain = 0
KLE1 210526Z 06008KT 02/M03 A3001 RMK A01 T00171030  RH  071%=      5-min Rain = 0
KLE1 210527Z 06008KT 02/M03 A3001 RMK A01 T00161031  RH  071%=      5-min Rain = 0
KLE1 210528Z 06008KT 02/M03 A3001 RMK A01 T00161030  RH  071%=      5-min Rain = 0
KLE1 210529Z 06009KT 02/M03 A3001 RMK A01 T00161031  RH  071%=      5-min Rain = 0
KLE1 210530Z 06008KT 02/M03 A3001 RMK A01 T00151030  RH  072%=      5-min Rain = 0
KLE1 210531Z 06008KT 02/M03 A3001 RMK A01 T00151030  RH  072%=      5-min Rain = 0
KLE1 210532Z 06009KT 02/M03 A3001 RMK A01 T00151030  RH  072%=      5-min Rain = 0
KLE1 210533Z 06009KT 02/M03 A3001 RMK A01 T00151031  RH  072%=      5-min Rain = 0
KLE1 210534Z 07008KT 02/M03 A30 RMK A01 T00151031  RH  072%=      5-min Rain = 0
KLE1 210535Z 06008KT 02/M03 A30 RMK A01 T00151031  RH  072%=      5-min Rain = 0
KLE1 210536Z 06008KT 02/M03 A30 RMK A01 T00151031  RH  072%=      5-min Rain = 0
KLE1 210537Z 06008KT 01/M03 A30 RMK A01 T00141031  RH  072%=      5-min Rain = 0
KLE1 210538Z 07009KT 01/M03 A30 RMK A01 T00131032  RH  072%=      5-min Rain = 0
KLE1 210539Z 06008KT 01/M03 A30 RMK A01 T00131032  RH  072%=      5-min Rain = 0
KLE1 210540Z 06008KT 01/M03 A30 RMK A01 T00131032  RH  072%=      5-min Rain = 0
KLE1 210541Z 06007KT 01/M03 A30 RMK A01 T00121032  RH  072%=      5-min Rain = 0
KLE1 210542Z 06008KT 01/M03 A30 RMK A01 T00121032  RH  072%=      5-min Rain = 0
KLE1 210543Z 06008KT 01/M03 A30 RMK A01 T00121032  RH  073%=      5-min Rain = 0
KLE1 210544Z 06007KT 01/M03 A30 RMK A01 T00121031  RH  073%=      5-min Rain = 0
KLE1 210545Z 06008KT 01/M03 A30 RMK A01 T00131032  RH  072%=      5-min Rain = 0
KLE1 210546Z 06008KT 01/M03 A30 RMK A01 T00121032  RH  072%=      5-min Rain = 0
KLE1 210547Z 06009KT 01/M03 A30 RMK A01 T00121032  RH  073%=      5-min Rain = 0
KLE1 210548Z 06009KT 01/M03 A30 RMK A01 T00121031  RH  073%=      5-min Rain = 0
KLE1 210549Z 06009KT 01/M03 A30 RMK A01 T00131031  RH  073%=      5-min Rain = 0
KLE1 210550Z 06009KT 01/M03 A30 RMK A01 T00131031  RH  072%=      5-min Rain = 0
KLE1 210551Z 06008KT 01/M03 A30 RMK A01 T00131031  RH  072%=      5-min Rain = 0
KLE1 210552Z 06009KT 01/M03 A30 RMK A01 T00131032  RH  072%=      5-min Rain = 0
KLE1 210553Z 06008KT 01/M03 A30 RMK A01 T00131031  RH  072%=      5-min Rain = 0
KLE1 210554Z 06009KT 01/M03 A30 RMK A01 T00131032  RH  072%=      5-min Rain = 0
KLE1 210555Z 06009KT 01/M03 A30 RMK A01 T00131032  RH  072%=      5-min Rain = 0
KLE1 210556Z 06009KT 01/M03 A30 RMK A01 T00121032  RH  072%=      5-min Rain = 0
KLE1 210557Z 06009KT 01/M03 A30 RMK A01 T00131032  RH  072%=      5-min Rain = 0
KLE1 210558Z 06009KT 01/M03 A30 RMK A01 T00131032  RH  072%=      5-min Rain = 0
KLE1 210559Z 06009KT 01/M03 A2999 RMK A01 T00131031  RH  072%=      5-min Rain = 0

Page generated in 0.1355 seconds.